Time,TemperatureF,DewpointF,PressureIn,WindDirection,WindDirectionDegrees,WindSpeedMPH,WindSpeedGustMPH,Humidity,HourlyPrecipIn,Conditions,Clouds,dailyrainin,SoftwareType,DateUTC
2013-08-12 00:01:00,63.5,56.9,29.94,West,281,0.0,3.0,79,0.00,,,0.00,VWS V14.01,2013-08-12 07:01:00,
2013-08-12 00:03:00,63.4,56.8,29.94,West,281,0.0,0.0,79,0.00,,,0.00,VWS V14.01,2013-08-12 07:03:00,
2013-08-12 00:04:00,63.4,56.8,29.94,West,281,0.0,0.0,79,0.00,,,0.00,VWS V14.01,2013-08-12 07:04:00,
2013-08-12 00:06:00,63.2,56.6,29.94,West,281,2.0,2.0,79,0.00,,,0.00,VWS V14.01,2013-08-12 07:06:00,
2013-08-12 00:07:00,63.2,56.6,29.94,West,281,0.0,3.0,79,0.00,,,0.00,VWS V14.01,2013-08-12 07:07:00,
2013-08-12 00:08:00,63.2,56.6,29.94,West,281,0.0,3.0,79,0.00,,,0.00,VWS V14.01,2013-08-12 07:08:00,
2013-08-12 00:10:00,63.1,56.5,29.94,West,281,0.0,3.0,79,0.00,,,0.00,VWS V14.01,2013-08-12 07:10:00,
2013-08-12 00:11:00,63.1,56.5,29.94,West,281,0.0,3.0,79,0.00,,,0.00,VWS V14.01,2013-08-12 07:11:00,
2013-08-12 00:12:00,63.1,56.5,29.94,West,281,0.0,0.0,79,0.00,,,0.00,VWS V14.01,2013-08-12 07:12:00,
2013-08-12 00:16:00,62.9,56.3,29.94,West,281,0.0,4.0,79,0.00,,,0.00,VWS V14.01,2013-08-12 07:16:00,
2013-08-12 00:18:00,62.7,56.1,29.94,West,281,1.0,1.0,79,0.00,,,0.00,VWS V14.01,2013-08-12 07:18:00,
2013-08-12 00:19:00,62.7,56.1,29.94,West,281,0.0,1.0,79,0.00,,,0.00,VWS V14.01,2013-08-12 07:19:00,
2013-08-12 00:21:00,62.6,56.3,29.94,West,281,0.0,1.0,80,0.00,,,0.00,VWS V14.01,2013-08-12 07:21:00,
2013-08-12 00:22:00,62.6,56.3,29.94,West,281,0.0,0.0,80,0.00,,,0.00,VWS V14.01,2013-08-12 07:22:00,
2013-08-12 00:25:00,62.4,56.2,29.94,West,281,0.0,1.0,80,0.00,,,0.00,VWS V14.01,2013-08-12 07:25:00,
2013-08-12 00:27:00,62.3,56.1,29.94,West,281,0.0,0.0,80,0.00,,,0.00,VWS V14.01,2013-08-12 07:27:00,
2013-08-12 00:31:00,62.1,56.2,29.94,West,281,0.0,1.0,81,0.00,,,0.00,VWS V14.01,2013-08-12 07:31:00,
2013-08-12 00:33:00,62.0,56.1,29.94,SW,233,1.0,5.0,81,0.00,,,0.00,VWS V14.01,2013-08-12 07:33:00,
2013-08-12 00:35:00,61.8,55.9,29.94,SW,233,2.0,5.0,81,0.00,,,0.00,VWS V14.01,2013-08-12 07:35:00,
2013-08-12 00:36:00,61.8,55.9,29.94,SW,233,0.0,5.0,81,0.00,,,0.00,VWS V14.01,2013-08-12 07:36:00,
2013-08-12 00:37:00,61.8,55.9,29.94,SW,233,0.0,0.0,81,0.00,,,0.00,VWS V14.01,2013-08-12 07:37:00,
2013-08-12 00:40:00,61.6,55.7,29.94,SW,233,0.0,0.0,81,0.00,,,0.00,VWS V14.01,2013-08-12 07:40:00,
2013-08-12 00:41:00,61.6,55.7,29.94,SW,233,0.0,0.0,81,0.00,,,0.00,VWS V14.01,2013-08-12 07:41:00,
2013-08-12 00:42:00,61.6,55.7,29.94,SW,233,0.0,0.0,81,0.00,,,0.00,VWS V14.01,2013-08-12 07:42:00,
2013-08-12 00:43:00,61.5,55.6,29.94,SW,233,0.0,0.0,81,0.00,,,0.00,VWS V14.01,2013-08-12 07:43:00,
2013-08-12 00:46:00,61.5,56.0,29.94,SW,233,0.0,0.0,82,0.00,,,0.00,VWS V14.01,2013-08-12 07:46:00,
2013-08-12 00:47:00,61.3,55.8,29.94,SW,233,0.0,0.0,82,0.00,,,0.00,VWS V14.01,2013-08-12 07:47:00,
2013-08-12 00:48:00,61.3,55.8,29.94,SW,233,0.0,0.0,82,0.00,,,0.00,VWS V14.01,2013-08-12 07:48:00,
2013-08-12 00:49:00,61.3,55.8,29.94,SW,233,0.0,0.0,82,0.00,,,0.00,VWS V14.01,2013-08-12 07:49:00,
2013-08-12 00:51:00,61.3,55.8,29.94,SW,233,0.0,0.0,82,0.00,,,0.00,VWS V14.01,2013-08-12 07:51:00,
2013-08-12 00:55:00,61.2,55.7,29.94,SW,233,0.0,0.0,82,0.00,,,0.00,VWS V14.01,2013-08-12 07:55:00,
2013-08-12 00:56:00,61.0,55.5,29.94,SW,233,0.0,0.0,82,0.00,,,0.00,VWS V14.01,2013-08-12 07:56:00,
2013-08-12 00:59:00,60.9,55.7,29.94,SW,233,0.0,0.0,83,0.00,,,0.00,VWS V14.01,2013-08-12 07:59:00,
2013-08-12 01:01:00,60.9,55.7,29.95,SW,233,0.0,0.0,83,0.00,,CLR,0.00,VWS V14.01,2013-08-12 08:01:00,
2013-08-12 01:03:00,60.7,55.5,29.95,SW,232,2.0,2.0,83,0.00,,CLR,0.00,VWS V14.01,2013-08-12 08:03:00,
2013-08-12 01:05:00,60.5,55.7,29.95,SW,232,0.0,2.0,84,0.00,,CLR,0.00,VWS V14.01,2013-08-12 08:05:00,
2013-08-12 01:06:00,60.4,55.5,29.95,SW,232,0.0,2.0,84,0.00,,CLR,0.00,VWS V14.01,2013-08-12 08:06:00,
2013-08-12 01:07:00,60.4,55.5,29.95,SW,232,0.0,0.0,84,0.00,,CLR,0.00,VWS V14.01,2013-08-12 08:07:00,
2013-08-12 01:08:00,60.4,55.5,29.95,SW,232,0.0,0.0,84,0.00,,CLR,0.00,VWS V14.01,2013-08-12 08:08:00,
2013-08-12 01:11:00,60.2,55.7,29.95,SW,232,0.0,0.0,85,0.00,,CLR,0.00,VWS V14.01,2013-08-12 08:11:00,
2013-08-12 01:13:00,60.1,55.6,29.95,SW,232,0.0,0.0,85,0.00,,CLR,0.00,VWS V14.01,2013-08-12 08:13:00,
2013-08-12 01:14:00,60.1,55.6,29.95,SW,232,0.0,0.0,85,0.00,,CLR,0.00,VWS V14.01,2013-08-12 08:14:00,
2013-08-12 01:15:00,60.1,55.6,29.95,SW,232,0.0,0.0,85,0.00,,CLR,0.00,VWS V14.01,2013-08-12 08:15:00,
2013-08-12 01:18:00,59.9,55.4,29.95,SW,232,2.0,2.0,85,0.00,,CLR,0.00,VWS V14.01,2013-08-12 08:18:00,
2013-08-12 01:19:00,59.8,55.3,29.95,SW,232,0.0,2.0,85,0.00,,CLR,0.00,VWS V14.01,2013-08-12 08:19:00,
2013-08-12 01:20:00,59.8,55.3,29.95,SW,232,0.0,2.0,85,0.00,,CLR,0.00,VWS V14.01,2013-08-12 08:20:00,
2013-08-12 01:23:00,59.6,55.4,29.95,SW,232,0.0,0.0,86,0.00,,CLR,0.00,VWS V14.01,2013-08-12 08:23:00,
2013-08-12 01:25:00,59.6,55.4,29.95,SW,232,0.0,0.0,86,0.00,,CLR,0.00,VWS V14.01,2013-08-12 08:25:00,
2013-08-12 01:26:00,59.6,55.4,29.95,SW,232,0.0,0.0,86,0.00,,CLR,0.00,VWS V14.01,2013-08-12 08:26:00,
2013-08-12 01:30:00,59.5,55.3,29.95,SW,232,0.0,0.0,86,0.00,,CLR,0.00,VWS V14.01,2013-08-12 08:30:00,
2013-08-12 01:31:00,59.3,55.1,29.95,SW,232,0.0,0.0,86,0.00,,CLR,0.00,VWS V14.01,2013-08-12 08:31:00,
2013-08-12 01:32:00,59.3,55.1,29.95,SW,232,0.0,0.0,86,0.00,,CLR,0.00,VWS V14.01,2013-08-12 08:32:00,
2013-08-12 01:33:00,59.3,55.1,29.95,SW,233,0.0,1.0,86,0.00,,CLR,0.00,VWS V14.01,2013-08-12 08:33:00,
2013-08-12 01:35:00,59.2,55.3,29.95,SW,232,1.0,1.0,87,0.00,,CLR,0.00,VWS V14.01,2013-08-12 08:35:00,
2013-08-12 01:36:00,59.2,55.3,29.95,SW,232,0.0,0.0,87,0.00,,CLR,0.00,VWS V14.01,2013-08-12 08:36:00,
2013-08-12 01:38:00,59.0,55.1,29.95,SW,232,0.0,1.0,87,0.00,,CLR,0.00,VWS V14.01,2013-08-12 08:38:00,
2013-08-12 01:39:00,59.0,55.1,29.95,SW,232,0.0,1.0,87,0.00,,CLR,0.00,VWS V14.01,2013-08-12 08:39:00,
2013-08-12 01:41:00,59.0,55.1,29.95,SW,233,0.0,0.0,87,0.00,,CLR,0.00,VWS V14.01,2013-08-12 08:41:00,
2013-08-12 01:42:00,58.9,55.0,29.95,SW,233,0.0,0.0,87,0.00,,CLR,0.00,VWS V14.01,2013-08-12 08:42:00,
2013-08-12 01:46:00,58.9,55.0,29.95,SW,233,0.0,0.0,87,0.00,,CLR,0.00,VWS V14.01,2013-08-12 08:46:00,
2013-08-12 01:48:00,58.7,55.2,29.95,SW,232,0.0,0.0,88,0.00,,CLR,0.00,VWS V14.01,2013-08-12 08:48:00,
2013-08-12 01:51:00,58.7,55.2,29.95,SW,232,0.0,0.0,88,0.00,,CLR,0.00,VWS V14.01,2013-08-12 08:51:00,
2013-08-12 01:52:00,58.7,55.2,29.95,SW,233,0.0,0.0,88,0.00,,CLR,0.00,VWS V14.01,2013-08-12 08:52:00,
2013-08-12 01:53:00,58.7,55.2,29.95,SW,233,0.0,0.0,88,0.00,,CLR,0.00,VWS V14.01,2013-08-12 08:53:00,
2013-08-12 01:56:00,58.7,55.2,29.95,SW,233,0.0,0.0,88,0.00,,CLR,0.00,VWS V14.01,2013-08-12 08:56:00,
2013-08-12 01:59:00,58.6,55.1,29.95,SW,233,0.0,0.0,88,0.00,,CLR,0.00,VWS V14.01,2013-08-12 08:59:00,
2013-08-12 02:00:00,58.6,55.1,29.94,SW,233,0.0,0.0,88,0.00,,CLR,0.00,VWS V14.01,2013-08-12 09:00:00,
2013-08-12 02:01:00,58.6,55.1,29.94,SW,232,0.0,0.0,88,0.00,,CLR,0.00,VWS V14.01,2013-08-12 09:01:00,
2013-08-12 02:03:00,58.6,55.1,29.94,SW,232,0.0,0.0,88,0.00,,CLR,0.00,VWS V14.01,2013-08-12 09:03:00,
2013-08-12 02:04:00,58.6,55.1,29.94,SW,232,0.0,0.0,88,0.00,,CLR,0.00,VWS V14.01,2013-08-12 09:04:00,
2013-08-12 02:05:00,58.6,55.1,29.94,SW,233,2.0,2.0,88,0.00,,CLR,0.00,VWS V14.01,2013-08-12 09:05:00,
2013-08-12 02:06:00,58.6,55.1,29.94,SW,233,0.0,0.0,88,0.00,,CLR,0.00,VWS V14.01,2013-08-12 09:06:00,
2013-08-12 02:07:00,58.6,55.1,29.94,SW,232,0.0,0.0,88,0.00,,CLR,0.00,VWS V14.01,2013-08-12 09:07:00,
2013-08-12 02:08:00,58.6,55.1,29.94,SW,233,0.0,0.0,88,0.00,,CLR,0.00,VWS V14.01,2013-08-12 09:08:00,
2013-08-12 02:10:00,58.6,55.1,29.94,SW,233,0.0,1.0,88,0.00,,CLR,0.00,VWS V14.01,2013-08-12 09:10:00,
2013-08-12 02:11:00,58.6,55.1,29.94,SW,233,0.0,0.0,88,0.00,,CLR,0.00,VWS V14.01,2013-08-12 09:11:00,
2013-08-12 02:14:00,58.6,55.1,29.94,SW,233,0.0,0.0,88,0.00,,CLR,0.00,VWS V14.01,2013-08-12 09:14:00,
2013-08-12 02:16:00,58.6,55.1,29.94,SSW,195,1.0,1.0,88,0.00,,CLR,0.00,VWS V14.01,2013-08-12 09:16:00,
2013-08-12 02:19:00,58.6,55.1,29.94,SSW,195,0.0,1.0,88,0.00,,CLR,0.00,VWS V14.01,2013-08-12 09:19:00,
2013-08-12 02:20:00,58.6,55.1,29.94,SSW,195,0.0,1.0,88,0.00,,CLR,0.00,VWS V14.01,2013-08-12 09:20:00,
2013-08-12 02:21:00,58.6,55.1,29.94,SSW,195,0.0,1.0,88,0.00,,CLR,0.00,VWS V14.01,2013-08-12 09:21:00,
2013-08-12 02:25:00,58.7,55.2,29.94,SSW,195,0.0,0.0,88,0.00,,CLR,0.00,VWS V14.01,2013-08-12 09:25:00,
2013-08-12 02:26:00,58.7,55.2,29.94,SSW,195,0.0,0.0,88,0.00,,CLR,0.00,VWS V14.01,2013-08-12 09:26:00,
2013-08-12 02:30:00,58.7,55.2,29.94,SSW,195,0.0,0.0,88,0.00,,CLR,0.00,VWS V14.01,2013-08-12 09:30:00,
2013-08-12 02:31:00,58.7,55.2,29.94,SSW,195,0.0,0.0,88,0.00,,CLR,0.00,VWS V14.01,2013-08-12 09:31:00,
2013-08-12 02:32:00,58.7,55.2,29.94,SSW,195,0.0,0.0,88,0.00,,CLR,0.00,VWS V14.01,2013-08-12 09:32:00,
2013-08-12 02:35:00,58.7,55.2,29.94,SSW,195,0.0,0.0,88,0.00,,CLR,0.00,VWS V14.01,2013-08-12 09:35:00,
2013-08-12 02:37:00,58.7,55.2,29.94,SSW,195,0.0,0.0,88,0.00,,CLR,0.00,VWS V14.01,2013-08-12 09:37:00,
2013-08-12 02:40:00,58.7,55.2,29.94,SSW,195,0.0,0.0,88,0.00,,CLR,0.00,VWS V14.01,2013-08-12 09:40:00,
2013-08-12 02:41:00,58.7,55.2,29.94,SSW,195,0.0,0.0,88,0.00,,CLR,0.00,VWS V14.01,2013-08-12 09:41:00,
2013-08-12 02:42:00,58.7,55.2,29.94,SSW,195,0.0,0.0,88,0.00,,CLR,0.00,VWS V14.01,2013-08-12 09:42:00,
2013-08-12 02:43:00,58.7,55.2,29.94,SSW,195,0.0,0.0,88,0.00,,CLR,0.00,VWS V14.01,2013-08-12 09:43:00,
2013-08-12 02:46:00,58.7,55.2,29.94,SSW,195,1.0,1.0,88,0.00,,CLR,0.00,VWS V14.01,2013-08-12 09:46:00,
2013-08-12 02:47:00,58.7,55.2,29.94,SSW,195,0.0,1.0,88,0.00,,CLR,0.00,VWS V14.01,2013-08-12 09:47:00,
2013-08-12 02:48:00,58.7,55.2,29.94,SSW,195,0.0,1.0,88,0.00,,CLR,0.00,VWS V14.01,2013-08-12 09:48:00,
2013-08-12 02:51:00,58.6,55.1,29.94,South,188,0.0,0.0,88,0.00,,CLR,0.00,VWS V14.01,2013-08-12 09:51:00,
2013-08-12 02:54:00,58.7,55.2,29.94,SSW,195,0.0,0.0,88,0.00,,CLR,0.00,VWS V14.01,2013-08-12 09:54:00,
2013-08-12 02:55:00,58.7,55.2,29.94,SSW,195,0.0,0.0,88,0.00,,CLR,0.00,VWS V14.01,2013-08-12 09:55:00,
2013-08-12 02:59:00,58.6,55.1,29.94,SSW,195,0.0,0.0,88,0.00,,CLR,0.00,VWS V14.01,2013-08-12 09:59:00,
2013-08-12 03:00:00,58.6,55.1,29.94,SSW,195,0.0,0.0,88,0.00,,BKN038,0.00,VWS V14.01,2013-08-12 10:00:00,
2013-08-12 03:01:00,58.6,55.1,29.94,SSW,195,0.0,0.0,88,0.00,,BKN038,0.00,VWS V14.01,2013-08-12 10:01:00,
2013-08-12 03:02:00,58.6,55.1,29.94,SSW,195,0.0,0.0,88,0.00,,BKN038,0.00,VWS V14.01,2013-08-12 10:02:00,
2013-08-12 03:05:00,58.6,55.1,29.94,SSW,195,0.0,0.0,88,0.00,,BKN038,0.00,VWS V14.01,2013-08-12 10:05:00,
2013-08-12 03:06:00,58.6,55.1,29.94,SSW,195,0.0,0.0,88,0.00,,BKN038,0.00,VWS V14.01,2013-08-12 10:06:00,
2013-08-12 03:09:00,58.7,55.5,29.94,SSW,195,0.0,0.0,89,0.00,,BKN038,0.00,VWS V14.01,2013-08-12 10:09:00,
2013-08-12 03:10:00,58.7,55.5,29.94,SSW,195,0.0,0.0,89,0.00,,BKN038,0.00,VWS V14.01,2013-08-12 10:10:00,
2013-08-12 03:11:00,58.7,55.5,29.94,SSW,195,0.0,0.0,89,0.00,,BKN038,0.00,VWS V14.01,2013-08-12 10:11:00,
2013-08-12 03:14:00,58.7,55.2,29.94,SSW,195,0.0,0.0,88,0.00,,BKN038,0.00,VWS V14.01,2013-08-12 10:14:00,
2013-08-12 03:15:00,58.7,55.2,29.94,SSW,195,0.0,0.0,88,0.00,,BKN038,0.00,VWS V14.01,2013-08-12 10:15:00,
2013-08-12 03:16:00,58.7,55.2,29.94,SSW,195,0.0,0.0,88,0.00,,BKN038,0.00,VWS V14.01,2013-08-12 10:16:00,
2013-08-12 03:17:00,58.7,55.2,29.94,SSW,195,0.0,0.0,88,0.00,,BKN038,0.00,VWS V14.01,2013-08-12 10:17:00,
2013-08-12 03:21:00,58.7,55.2,29.94,SSW,195,0.0,1.0,88,0.00,,BKN038,0.00,VWS V14.01,2013-08-12 10:21:00,
2013-08-12 03:22:00,58.7,55.2,29.94,SSW,195,0.0,0.0,88,0.00,,BKN038,0.00,VWS V14.01,2013-08-12 10:22:00,
2013-08-12 03:23:00,58.7,55.2,29.94,SSW,195,0.0,0.0,88,0.00,,BKN038,0.00,VWS V14.01,2013-08-12 10:23:00,
2013-08-12 03:25:00,58.7,55.2,29.94,SSW,195,0.0,0.0,88,0.00,,BKN038,0.00,VWS V14.01,2013-08-12 10:25:00,
2013-08-12 03:28:00,58.7,55.2,29.94,SSW,195,0.0,0.0,88,0.00,,BKN038,0.00,VWS V14.01,2013-08-12 10:28:00,
2013-08-12 03:29:00,58.7,55.2,29.94,SSW,195,0.0,0.0,88,0.00,,BKN038,0.00,VWS V14.01,2013-08-12 10:29:00,
2013-08-12 03:30:00,58.7,55.2,29.94,SSW,195,0.0,0.0,88,0.00,,BKN038,0.00,VWS V14.01,2013-08-12 10:30:00,
2013-08-12 03:33:00,58.7,55.2,29.94,SSW,195,0.0,0.0,88,0.00,,BKN038,0.00,VWS V14.01,2013-08-12 10:33:00,
2013-08-12 03:35:00,58.9,55.4,29.94,SSW,195,0.0,0.0,88,0.00,,BKN038,0.00,VWS V14.01,2013-08-12 10:35:00,
2013-08-12 03:36:00,58.9,55.4,29.94,SSW,195,0.0,0.0,88,0.00,,BKN038,0.00,VWS V14.01,2013-08-12 10:36:00,
2013-08-12 03:39:00,58.9,55.4,29.94,SSW,195,0.0,0.0,88,0.00,,BKN038,0.00,VWS V14.01,2013-08-12 10:39:00,
2013-08-12 03:42:00,58.9,55.4,29.94,SSW,195,0.0,0.0,88,0.00,,BKN038,0.00,VWS V14.01,2013-08-12 10:42:00,
2013-08-12 03:44:00,58.9,55.4,29.94,SSW,195,0.0,0.0,88,0.00,,BKN038,0.00,VWS V14.01,2013-08-12 10:44:00,
2013-08-12 03:45:00,58.9,55.4,29.95,SSW,195,0.0,0.0,88,0.00,,BKN038,0.00,VWS V14.01,2013-08-12 10:45:00,
2013-08-12 03:46:00,58.9,55.4,29.95,SSW,195,0.0,0.0,88,0.00,,BKN038,0.00,VWS V14.01,2013-08-12 10:46:00,
2013-08-12 03:49:00,58.9,55.4,29.95,SSW,195,0.0,0.0,88,0.00,,BKN038,0.00,VWS V14.01,2013-08-12 10:49:00,
2013-08-12 03:50:00,58.9,55.4,29.95,SSW,195,0.0,0.0,88,0.00,,BKN038,0.00,VWS V14.01,2013-08-12 10:50:00,
2013-08-12 03:52:00,58.9,55.4,29.95,SSW,195,0.0,0.0,88,0.00,,BKN038,0.00,VWS V14.01,2013-08-12 10:52:00,
2013-08-12 03:53:00,58.9,55.4,29.95,SSW,195,0.0,0.0,88,0.00,,BKN038,0.00,VWS V14.01,2013-08-12 10:53:00,
2013-08-12 03:56:00,58.9,55.4,29.95,SSW,195,0.0,0.0,88,0.00,,BKN038,0.00,VWS V14.01,2013-08-12 10:56:00,
2013-08-12 03:58:00,58.9,55.4,29.95,SSW,195,0.0,0.0,88,0.00,,BKN038,0.00,VWS V14.01,2013-08-12 10:58:00,
2013-08-12 03:59:00,58.9,55.4,29.95,SSW,195,0.0,0.0,88,0.00,,BKN038,0.00,VWS V14.01,2013-08-12 10:59:00,
2013-08-12 04:01:00,58.9,55.4,29.95,SSW,195,0.0,0.0,88,0.00,,OVC044,0.00,VWS V14.01,2013-08-12 11:01:00,
2013-08-12 04:02:00,58.9,55.4,29.95,SSW,195,0.0,0.0,88,0.00,,OVC044,0.00,VWS V14.01,2013-08-12 11:02:00,
2013-08-12 04:05:00,58.9,55.7,29.95,SSW,195,0.0,0.0,89,0.00,,OVC044,0.00,VWS V14.01,2013-08-12 11:05:00,
2013-08-12 04:06:00,58.9,55.7,29.95,SSW,195,0.0,0.0,89,0.00,,OVC044,0.00,VWS V14.01,2013-08-12 11:06:00,
2013-08-12 04:11:00,58.9,55.7,29.95,SSW,195,0.0,0.0,89,0.00,,OVC044,0.00,VWS V14.01,2013-08-12 11:11:00,
2013-08-12 04:12:00,58.9,55.7,29.95,SSW,195,0.0,0.0,89,0.00,,OVC044,0.00,VWS V14.01,2013-08-12 11:12:00,
2013-08-12 04:17:00,58.9,55.7,29.95,SSW,195,0.0,0.0,89,0.00,,OVC044,0.00,VWS V14.01,2013-08-12 11:17:00,
2013-08-12 04:18:00,58.9,55.7,29.95,SSW,195,0.0,0.0,89,0.00,,OVC044,0.00,VWS V14.01,2013-08-12 11:18:00,
2013-08-12 04:19:00,58.9,55.4,29.95,SSW,195,0.0,0.0,88,0.00,,OVC044,0.00,VWS V14.01,2013-08-12 11:19:00,
2013-08-12 04:20:00,58.9,55.4,29.95,SSW,195,0.0,0.0,88,0.00,,OVC044,0.00,VWS V14.01,2013-08-12 11:20:00,
2013-08-12 04:21:00,58.9,55.4,29.95,SSW,195,0.0,0.0,88,0.00,,OVC044,0.00,VWS V14.01,2013-08-12 11:21:00,
2013-08-12 04:24:00,58.9,55.4,29.95,SSW,195,0.0,0.0,88,0.00,,OVC044,0.00,VWS V14.01,2013-08-12 11:24:00,
2013-08-12 04:26:00,58.9,55.4,29.95,SSW,195,0.0,0.0,88,0.00,,OVC044,0.00,VWS V14.01,2013-08-12 11:26:00,
2013-08-12 04:28:00,58.9,55.4,29.95,SSW,195,0.0,0.0,88,0.00,,OVC044,0.00,VWS V14.01,2013-08-12 11:28:00,
2013-08-12 04:29:00,58.9,55.4,29.95,SSW,195,0.0,0.0,88,0.00,,OVC044,0.00,VWS V14.01,2013-08-12 11:29:00,
2013-08-12 04:32:00,58.9,55.4,29.95,SSW,195,0.0,0.0,88,0.00,,OVC044,0.00,VWS V14.01,2013-08-12 11:32:00,
2013-08-12 04:34:00,58.9,55.4,29.95,SSW,195,0.0,0.0,88,0.00,,OVC044,0.00,VWS V14.01,2013-08-12 11:34:00,
2013-08-12 04:35:00,58.9,55.4,29.95,SSW,195,0.0,0.0,88,0.00,,OVC044,0.00,VWS V14.01,2013-08-12 11:35:00,
2013-08-12 04:36:00,58.9,55.4,29.95,SSW,195,0.0,0.0,88,0.00,,OVC044,0.00,VWS V14.01,2013-08-12 11:36:00,
2013-08-12 04:39:00,58.9,55.0,29.95,SSW,195,0.0,0.0,87,0.00,,OVC044,0.00,VWS V14.01,2013-08-12 11:39:00,
2013-08-12 04:41:00,58.9,55.0,29.95,SSW,195,0.0,0.0,87,0.00,,OVC044,0.00,VWS V14.01,2013-08-12 11:41:00,
2013-08-12 04:42:00,58.9,55.0,29.95,SSW,195,0.0,0.0,87,0.00,,OVC044,0.00,VWS V14.01,2013-08-12 11:42:00,
2013-08-12 04:44:00,58.9,55.0,29.95,SSW,195,0.0,0.0,87,0.00,,OVC044,0.00,VWS V14.01,2013-08-12 11:44:00,
2013-08-12 04:45:00,58.9,55.0,29.95,SSW,195,0.0,0.0,87,0.00,,OVC044,0.00,VWS V14.01,2013-08-12 11:45:00,
2013-08-12 04:47:00,58.9,55.0,29.95,SSW,195,0.0,0.0,87,0.00,,OVC044,0.00,VWS V14.01,2013-08-12 11:47:00,
2013-08-12 04:50:00,58.9,55.0,29.95,SSW,195,0.0,0.0,87,0.00,,OVC044,0.00,VWS V14.01,2013-08-12 11:50:00,
2013-08-12 04:51:00,59.0,55.1,29.95,SSW,195,0.0,0.0,87,0.00,,OVC044,0.00,VWS V14.01,2013-08-12 11:51:00,
2013-08-12 04:52:00,59.0,55.1,29.95,SSW,195,0.0,0.0,87,0.00,,OVC044,0.00,VWS V14.01,2013-08-12 11:52:00,
2013-08-12 04:54:00,59.0,55.1,29.95,SSW,195,0.0,0.0,87,0.00,,OVC044,0.00,VWS V14.01,2013-08-12 11:54:00,
2013-08-12 04:55:00,59.0,55.1,29.95,SSW,195,0.0,0.0,87,0.00,,OVC044,0.00,VWS V14.01,2013-08-12 11:55:00,
2013-08-12 04:57:00,59.0,55.1,29.95,SSW,195,0.0,0.0,87,0.00,,OVC044,0.00,VWS V14.01,2013-08-12 11:57:00,
2013-08-12 04:58:00,59.0,55.1,29.95,SSW,195,0.0,0.0,87,0.00,,OVC044,0.00,VWS V14.01,2013-08-12 11:58:00,
2013-08-12 05:01:00,59.0,55.1,29.95,SSW,195,0.0,0.0,87,0.00,,OVC044,0.00,VWS V14.01,2013-08-12 12:01:00,
2013-08-12 05:02:00,59.0,55.1,29.95,SSW,195,0.0,0.0,87,0.00,,OVC044,0.00,VWS V14.01,2013-08-12 12:02:00,
2013-08-12 05:03:00,59.0,55.1,29.95,SSW,195,0.0,0.0,87,0.00,,OVC044,0.00,VWS V14.01,2013-08-12 12:03:00,
2013-08-12 05:05:00,59.0,55.1,29.95,SSW,195,0.0,0.0,87,0.00,,OVC044,0.00,VWS V14.01,2013-08-12 12:05:00,
2013-08-12 05:06:00,59.0,55.1,29.95,SSW,195,0.0,0.0,87,0.00,,OVC044,0.00,VWS V14.01,2013-08-12 12:06:00,
2013-08-12 05:07:00,59.0,55.1,29.95,SSW,195,0.0,0.0,87,0.00,,OVC044,0.00,VWS V14.01,2013-08-12 12:07:00,
2013-08-12 05:10:00,59.0,55.1,29.95,SSW,195,0.0,0.0,87,0.00,,OVC044,0.00,VWS V14.01,2013-08-12 12:10:00,
2013-08-12 05:11:00,59.0,55.1,29.95,SSW,195,0.0,0.0,87,0.00,,OVC044,0.00,VWS V14.01,2013-08-12 12:11:00,
2013-08-12 05:13:00,59.0,55.1,29.95,SSW,195,0.0,0.0,87,0.00,,OVC044,0.00,VWS V14.01,2013-08-12 12:13:00,
2013-08-12 05:16:00,59.0,55.1,29.95,SSW,195,0.0,0.0,87,0.00,,OVC044,0.00,VWS V14.01,2013-08-12 12:16:00,
2013-08-12 05:18:00,59.0,55.1,29.95,SSW,195,0.0,0.0,87,0.00,,OVC044,0.00,VWS V14.01,2013-08-12 12:18:00,
2013-08-12 05:19:00,59.0,55.1,29.95,SSW,195,0.0,0.0,87,0.00,,OVC044,0.00,VWS V14.01,2013-08-12 12:19:00,
2013-08-12 05:21:00,59.0,55.1,29.95,SSW,195,0.0,0.0,87,0.00,,OVC044,0.00,VWS V14.01,2013-08-12 12:21:00,
2013-08-12 05:22:00,59.0,55.1,29.95,SSW,195,0.0,0.0,87,0.00,,OVC044,0.00,VWS V14.01,2013-08-12 12:22:00,
2013-08-12 05:23:00,59.0,55.1,29.95,SSW,195,0.0,0.0,87,0.00,,OVC044,0.00,VWS V14.01,2013-08-12 12:23:00,
2013-08-12 05:24:00,59.0,55.1,29.95,SSW,195,0.0,0.0,87,0.00,,OVC044,0.00,VWS V14.01,2013-08-12 12:24:00,
2013-08-12 05:26:00,59.0,55.1,29.95,SSW,195,0.0,0.0,87,0.00,,OVC044,0.00,VWS V14.01,2013-08-12 12:26:00,
2013-08-12 05:29:00,59.0,55.1,29.95,SSW,195,0.0,0.0,87,0.00,,OVC044,0.00,VWS V14.01,2013-08-12 12:29:00,
2013-08-12 05:31:00,59.0,55.1,29.95,SSW,195,0.0,0.0,87,0.00,,OVC044,0.00,VWS V14.01,2013-08-12 12:31:00,
2013-08-12 05:33:00,59.0,55.1,29.95,SSW,195,0.0,0.0,87,0.00,,OVC044,0.00,VWS V14.01,2013-08-12 12:33:00,
2013-08-12 05:37:00,59.0,55.1,29.95,SSW,195,0.0,0.0,87,0.00,,OVC044,0.00,VWS V14.01,2013-08-12 12:37:00,
2013-08-12 05:39:00,59.0,55.1,29.95,SSW,195,0.0,0.0,87,0.00,,OVC044,0.00,VWS V14.01,2013-08-12 12:39:00,
2013-08-12 05:40:00,59.0,55.1,29.95,SSW,195,0.0,0.0,87,0.00,,OVC044,0.00,VWS V14.01,2013-08-12 12:40:00,
2013-08-12 05:41:00,59.0,55.1,29.95,SSW,195,0.0,0.0,87,0.00,,OVC044,0.00,VWS V14.01,2013-08-12 12:41:00,
2013-08-12 05:45:00,59.0,55.1,29.95,SSW,195,0.0,0.0,87,0.00,,OVC044,0.00,VWS V14.01,2013-08-12 12:45:00,
2013-08-12 05:46:00,59.0,55.1,29.96,SSW,195,0.0,0.0,87,0.00,,OVC044,0.00,VWS V14.01,2013-08-12 12:46:00,
2013-08-12 05:51:00,59.0,55.1,29.96,SSW,195,0.0,0.0,87,0.00,,OVC044,0.00,VWS V14.01,2013-08-12 12:51:00,
2013-08-12 05:52:00,59.0,55.1,29.96,SSW,195,0.0,0.0,87,0.00,,OVC044,0.00,VWS V14.01,2013-08-12 12:52:00,
2013-08-12 05:53:00,59.0,55.1,29.96,SSW,195,0.0,0.0,87,0.00,,OVC044,0.00,VWS V14.01,2013-08-12 12:53:00,
2013-08-12 05:57:00,59.0,55.1,29.96,SSW,195,0.0,1.0,87,0.00,,OVC044,0.00,VWS V14.01,2013-08-12 12:57:00,
2013-08-12 05:59:00,59.0,54.8,29.96,SSW,195,0.0,1.0,86,0.00,,OVC044,0.00,VWS V14.01,2013-08-12 12:59:00,
2013-08-12 06:00:00,59.0,54.8,29.96,SSW,195,1.0,2.0,86,0.00,,OVC045,0.00,VWS V14.01,2013-08-12 13:00:00,
2013-08-12 06:01:00,59.0,54.8,29.96,SSW,195,0.0,2.0,86,0.00,,OVC045,0.00,VWS V14.01,2013-08-12 13:01:00,
2013-08-12 06:02:00,59.0,54.8,29.96,SSW,196,0.0,2.0,86,0.00,,OVC045,0.00,VWS V14.01,2013-08-12 13:02:00,
2013-08-12 06:07:00,59.0,54.5,29.96,SSW,196,0.0,0.0,85,0.00,,OVC045,0.00,VWS V14.01,2013-08-12 13:07:00,
2013-08-12 06:08:00,59.0,54.5,29.96,SSW,196,0.0,0.0,85,0.00,,OVC045,0.00,VWS V14.01,2013-08-12 13:08:00,
2013-08-12 06:11:00,59.0,54.5,29.96,SSW,196,0.0,1.0,85,0.00,,OVC045,0.00,VWS V14.01,2013-08-12 13:11:00,
2013-08-12 06:12:00,59.0,54.5,29.96,SSW,196,0.0,0.0,85,0.00,,OVC045,0.00,VWS V14.01,2013-08-12 13:12:00,
2013-08-12 06:14:00,59.0,54.5,29.96,SSW,196,0.0,2.0,85,0.00,,OVC045,0.00,VWS V14.01,2013-08-12 13:14:00,
2013-08-12 06:17:00,59.0,54.5,29.96,SSW,196,0.0,0.0,85,0.00,,OVC045,0.00,VWS V14.01,2013-08-12 13:17:00,
2013-08-12 06:19:00,59.0,54.5,29.96,SSW,196,0.0,0.0,85,0.00,,OVC045,0.00,VWS V14.01,2013-08-12 13:19:00,
2013-08-12 06:20:00,59.0,54.5,29.96,SSW,196,0.0,0.0,85,0.00,,OVC045,0.00,VWS V14.01,2013-08-12 13:20:00,
2013-08-12 06:21:00,59.2,54.7,29.96,SSW,196,0.0,0.0,85,0.00,,OVC045,0.00,VWS V14.01,2013-08-12 13:21:00,
2013-08-12 06:22:00,59.2,54.7,29.96,SSW,196,0.0,0.0,85,0.00,,OVC045,0.00,VWS V14.01,2013-08-12 13:22:00,
2013-08-12 06:25:00,59.2,54.7,29.96,SSW,196,0.0,0.0,85,0.00,,OVC045,0.00,VWS V14.01,2013-08-12 13:25:00,
2013-08-12 06:26:00,59.2,54.7,29.96,SSW,196,2.0,2.0,85,0.00,,OVC045,0.00,VWS V14.01,2013-08-12 13:26:00,
2013-08-12 06:27:00,59.2,54.7,29.96,SSW,196,1.0,2.0,85,0.00,,OVC045,0.00,VWS V14.01,2013-08-12 13:27:00,
2013-08-12 06:28:00,59.2,54.7,29.96,SSW,196,1.0,2.0,85,0.00,,OVC045,0.00,VWS V14.01,2013-08-12 13:28:00,
2013-08-12 06:31:00,59.2,54.4,29.96,SSW,198,2.0,2.0,84,0.00,,OVC045,0.00,VWS V14.01,2013-08-12 13:31:00,
2013-08-12 06:32:00,59.2,54.4,29.96,South,189,1.0,2.0,84,0.00,,OVC045,0.00,VWS V14.01,2013-08-12 13:32:00,
2013-08-12 06:33:00,59.2,54.4,29.96,SSW,198,0.0,2.0,84,0.00,,OVC045,0.00,VWS V14.01,2013-08-12 13:33:00,
2013-08-12 06:35:00,59.2,54.4,29.96,SSW,198,1.0,2.0,84,0.00,,OVC045,0.00,VWS V14.01,2013-08-12 13:35:00,
2013-08-12 06:37:00,59.2,54.0,29.96,SSW,198,0.0,0.0,83,0.00,,OVC045,0.00,VWS V14.01,2013-08-12 13:37:00,
2013-08-12 06:38:00,59.2,54.0,29.96,SSW,198,0.0,0.0,83,0.00,,OVC045,0.00,VWS V14.01,2013-08-12 13:38:00,
2013-08-12 06:39:00,59.3,54.2,29.96,SSW,198,0.0,0.0,83,0.00,,OVC045,0.00,VWS V14.01,2013-08-12 13:39:00,
2013-08-12 06:40:00,59.3,54.5,29.96,SSW,198,0.0,0.0,84,0.00,,OVC045,0.00,VWS V14.01,2013-08-12 13:40:00,
2013-08-12 06:43:00,59.3,54.2,29.96,SSW,198,0.0,0.0,83,0.00,,OVC045,0.00,VWS V14.01,2013-08-12 13:43:00,
2013-08-12 06:44:00,59.3,54.2,29.96,SSW,198,0.0,0.0,83,0.00,,OVC045,0.00,VWS V14.01,2013-08-12 13:44:00,
2013-08-12 06:46:00,59.3,54.2,29.97,SSW,198,0.0,0.0,83,0.00,,OVC045,0.00,VWS V14.01,2013-08-12 13:46:00,
2013-08-12 06:47:00,59.3,54.2,29.97,SSW,198,0.0,0.0,83,0.00,,OVC045,0.00,VWS V14.01,2013-08-12 13:47:00,
2013-08-12 06:49:00,59.3,54.2,29.97,SSW,198,0.0,0.0,83,0.00,,OVC045,0.00,VWS V14.01,2013-08-12 13:49:00,
2013-08-12 06:51:00,59.3,54.2,29.97,SSW,198,0.0,0.0,83,0.00,,OVC045,0.00,VWS V14.01,2013-08-12 13:51:00,
2013-08-12 06:52:00,59.3,54.2,29.97,SSW,198,0.0,0.0,83,0.00,,OVC045,0.00,VWS V14.01,2013-08-12 13:52:00,
2013-08-12 06:54:00,59.5,54.3,29.97,SSW,198,0.0,0.0,83,0.00,,OVC045,0.00,VWS V14.01,2013-08-12 13:54:00,
2013-08-12 06:56:00,59.5,54.3,29.97,SSW,198,0.0,0.0,83,0.00,,OVC045,0.00,VWS V14.01,2013-08-12 13:56:00,
2013-08-12 06:57:00,59.5,54.3,29.97,SSW,198,0.0,0.0,83,0.00,,OVC045,0.00,VWS V14.01,2013-08-12 13:57:00,
2013-08-12 06:58:00,59.5,54.3,29.97,SSW,198,0.0,0.0,83,0.00,,OVC045,0.00,VWS V14.01,2013-08-12 13:58:00,
2013-08-12 07:01:00,59.5,54.3,29.97,SSW,198,0.0,0.0,83,0.00,,OVC047,0.00,VWS V14.01,2013-08-12 14:01:00,
2013-08-12 07:02:00,59.5,54.3,29.97,SSW,198,0.0,0.0,83,0.00,,OVC047,0.00,VWS V14.01,2013-08-12 14:02:00,
2013-08-12 07:03:00,59.5,54.3,29.97,SSW,198,0.0,0.0,83,0.00,,OVC047,0.00,VWS V14.01,2013-08-12 14:03:00,
2013-08-12 07:04:00,59.5,54.3,29.97,SSW,198,0.0,0.0,83,0.00,,OVC047,0.00,VWS V14.01,2013-08-12 14:04:00,
2013-08-12 07:06:00,59.5,54.3,29.97,SSW,198,0.0,0.0,83,0.00,,OVC047,0.00,VWS V14.01,2013-08-12 14:06:00,
2013-08-12 07:08:00,59.5,54.3,29.97,SSW,198,0.0,0.0,83,0.00,,OVC047,0.00,VWS V14.01,2013-08-12 14:08:00,
2013-08-12 07:09:00,59.5,54.3,29.97,SSW,198,0.0,0.0,83,0.00,,OVC047,0.00,VWS V14.01,2013-08-12 14:09:00,
2013-08-12 07:10:00,59.5,54.3,29.97,SSW,198,0.0,0.0,83,0.00,,OVC047,0.00,VWS V14.01,2013-08-12 14:10:00,
2013-08-12 07:11:00,59.5,54.3,29.97,SSW,198,0.0,0.0,83,0.00,,OVC047,0.00,VWS V14.01,2013-08-12 14:11:00,
2013-08-12 07:12:00,59.5,54.3,29.97,SSW,198,0.0,0.0,83,0.00,,OVC047,0.00,VWS V14.01,2013-08-12 14:12:00,
2013-08-12 07:14:00,59.5,54.3,29.97,SSW,198,0.0,0.0,83,0.00,,OVC047,0.00,VWS V14.01,2013-08-12 14:14:00,
2013-08-12 07:18:00,59.6,54.4,29.97,SSW,198,0.0,0.0,83,0.00,,OVC047,0.00,VWS V14.01,2013-08-12 14:18:00,
2013-08-12 07:19:00,59.6,54.4,29.97,SSW,198,0.0,0.0,83,0.00,,OVC047,0.00,VWS V14.01,2013-08-12 14:19:00,
2013-08-12 07:20:00,59.6,54.4,29.97,SSW,198,0.0,0.0,83,0.00,,OVC047,0.00,VWS V14.01,2013-08-12 14:20:00,
2013-08-12 07:21:00,59.6,54.4,29.97,SSW,198,0.0,0.0,83,0.00,,OVC047,0.00,VWS V14.01,2013-08-12 14:21:00,
2013-08-12 07:22:00,59.8,54.6,29.97,SSW,198,0.0,0.0,83,0.00,,OVC047,0.00,VWS V14.01,2013-08-12 14:22:00,
2013-08-12 07:23:00,59.8,54.6,29.97,SSW,198,0.0,0.0,83,0.00,,OVC047,0.00,VWS V14.01,2013-08-12 14:23:00,
2013-08-12 07:26:00,59.9,55.1,29.97,SSW,198,0.0,0.0,84,0.00,,OVC047,0.00,VWS V14.01,2013-08-12 14:26:00,
2013-08-12 07:28:00,59.9,55.1,29.97,SSW,198,0.0,0.0,84,0.00,,OVC047,0.00,VWS V14.01,2013-08-12 14:28:00,
2013-08-12 07:31:00,59.9,54.7,29.97,SSW,198,0.0,0.0,83,0.00,,OVC047,0.00,VWS V14.01,2013-08-12 14:31:00,
2013-08-12 07:32:00,59.9,54.7,29.97,SSW,198,0.0,0.0,83,0.00,,OVC047,0.00,VWS V14.01,2013-08-12 14:32:00,
2013-08-12 07:34:00,59.9,54.4,29.97,SSW,198,0.0,0.0,82,0.00,,OVC047,0.00,VWS V14.01,2013-08-12 14:34:00,
2013-08-12 07:37:00,59.9,54.4,29.97,SSW,198,0.0,0.0,82,0.00,,OVC047,0.00,VWS V14.01,2013-08-12 14:37:00,
2013-08-12 07:38:00,59.9,54.4,29.97,SSW,198,0.0,0.0,82,0.00,,OVC047,0.00,VWS V14.01,2013-08-12 14:38:00,
2013-08-12 07:39:00,59.9,54.1,29.97,SSW,198,0.0,0.0,81,0.00,,OVC047,0.00,VWS V14.01,2013-08-12 14:39:00,
2013-08-12 07:43:00,59.9,54.1,29.97,SSW,198,0.0,0.0,81,0.00,,OVC047,0.00,VWS V14.01,2013-08-12 14:43:00,
2013-08-12 07:44:00,59.9,54.1,29.97,SSW,198,0.0,0.0,81,0.00,,OVC047,0.00,VWS V14.01,2013-08-12 14:44:00,
2013-08-12 07:46:00,59.9,54.1,29.98,SSW,198,0.0,0.0,81,0.00,,OVC047,0.00,VWS V14.01,2013-08-12 14:46:00,
2013-08-12 07:48:00,60.1,53.9,29.98,SSW,198,0.0,0.0,80,0.00,,OVC047,0.00,VWS V14.01,2013-08-12 14:48:00,
2013-08-12 07:49:00,60.1,53.9,29.98,SSW,198,0.0,0.0,80,0.00,,OVC047,0.00,VWS V14.01,2013-08-12 14:49:00,
2013-08-12 07:50:00,60.1,53.9,29.98,SSW,198,0.0,0.0,80,0.00,,OVC047,0.00,VWS V14.01,2013-08-12 14:50:00,
2013-08-12 07:52:00,60.1,53.6,29.98,SSW,198,0.0,0.0,79,0.00,,OVC047,0.00,VWS V14.01,2013-08-12 14:52:00,
2013-08-12 07:55:00,60.1,53.9,29.98,SSW,198,0.0,0.0,80,0.00,,OVC047,0.00,VWS V14.01,2013-08-12 14:55:00,
2013-08-12 07:58:00,60.4,54.2,29.98,SSW,198,0.0,0.0,80,0.00,,OVC047,0.00,VWS V14.01,2013-08-12 14:58:00,
2013-08-12 07:59:00,60.4,53.9,29.98,SSW,198,0.0,0.0,79,0.00,,OVC047,0.00,VWS V14.01,2013-08-12 14:59:00,
2013-08-12 08:01:00,60.4,53.9,29.98,SSW,198,0.0,0.0,79,0.00,,,0.00,VWS V14.01,2013-08-12 15:01:00,
2013-08-12 08:05:00,60.5,54.0,29.98,SSW,198,0.0,0.0,79,0.00,,,0.00,VWS V14.01,2013-08-12 15:05:00,
2013-08-12 08:06:00,60.5,54.0,29.98,SSW,198,0.0,0.0,79,0.00,,,0.00,VWS V14.01,2013-08-12 15:06:00,
2013-08-12 08:09:00,60.7,54.2,29.98,SSW,198,0.0,0.0,79,0.00,,,0.00,VWS V14.01,2013-08-12 15:09:00,
2013-08-12 08:11:00,60.7,54.2,29.98,SSW,198,0.0,0.0,79,0.00,,,0.00,VWS V14.01,2013-08-12 15:11:00,
2013-08-12 08:12:00,60.7,54.2,29.98,SSW,198,0.0,0.0,79,0.00,,,0.00,VWS V14.01,2013-08-12 15:12:00,
2013-08-12 08:14:00,60.9,54.3,29.98,SSW,198,0.0,0.0,79,0.00,,,0.00,VWS V14.01,2013-08-12 15:14:00,
2013-08-12 08:15:00,60.9,54.3,29.98,SSW,198,0.0,0.0,79,0.00,,,0.00,VWS V14.01,2013-08-12 15:15:00,
2013-08-12 08:19:00,61.0,54.1,29.98,SSW,198,0.0,0.0,78,0.00,,,0.00,VWS V14.01,2013-08-12 15:19:00,
2013-08-12 08:21:00,61.0,54.1,29.98,SSW,198,0.0,0.0,78,0.00,,,0.00,VWS V14.01,2013-08-12 15:21:00,
2013-08-12 08:22:00,61.0,53.8,29.98,SSW,198,0.0,0.0,77,0.00,,,0.00,VWS V14.01,2013-08-12 15:22:00,
2013-08-12 08:23:00,61.0,53.8,29.98,SSW,198,0.0,0.0,77,0.00,,,0.00,VWS V14.01,2013-08-12 15:23:00,
2013-08-12 08:24:00,61.2,53.9,29.98,SSW,198,0.0,0.0,77,0.00,,,0.00,VWS V14.01,2013-08-12 15:24:00,
2013-08-12 08:26:00,61.2,53.9,29.98,SSW,198,0.0,0.0,77,0.00,,,0.00,VWS V14.01,2013-08-12 15:26:00,
2013-08-12 08:29:00,61.3,54.0,29.98,SSW,198,0.0,1.0,77,0.00,,,0.00,VWS V14.01,2013-08-12 15:29:00,
2013-08-12 08:31:00,61.3,54.0,29.99,SSW,198,0.0,1.0,77,0.00,,,0.00,VWS V14.01,2013-08-12 15:31:00,
2013-08-12 08:32:00,61.3,54.0,29.99,SSW,198,0.0,0.0,77,0.00,,,0.00,VWS V14.01,2013-08-12 15:32:00,
2013-08-12 08:34:00,61.5,54.2,29.99,SSW,198,0.0,0.0,77,0.00,,,0.00,VWS V14.01,2013-08-12 15:34:00,
2013-08-12 08:37:00,61.6,54.3,29.99,SSW,198,0.0,0.0,77,0.00,,,0.00,VWS V14.01,2013-08-12 15:37:00,
2013-08-12 08:38:00,61.6,54.3,29.99,SSW,198,0.0,0.0,77,0.00,,,0.00,VWS V14.01,2013-08-12 15:38:00,
2013-08-12 08:39:00,61.8,54.5,29.99,SSW,198,0.0,0.0,77,0.00,,,0.00,VWS V14.01,2013-08-12 15:39:00,
2013-08-12 08:40:00,61.8,54.5,29.99,SSW,198,0.0,0.0,77,0.00,,,0.00,VWS V14.01,2013-08-12 15:40:00,
2013-08-12 08:42:00,61.8,54.2,29.99,SSW,198,0.0,0.0,76,0.00,,,0.00,VWS V14.01,2013-08-12 15:42:00,
2013-08-12 08:44:00,61.8,53.8,29.99,SSW,196,0.0,0.0,75,0.00,,,0.00,VWS V14.01,2013-08-12 15:44:00,
2013-08-12 08:46:00,61.8,53.8,29.99,SSW,198,0.0,0.0,75,0.00,,,0.00,VWS V14.01,2013-08-12 15:46:00,
2013-08-12 08:48:00,61.8,53.8,29.99,SSW,198,0.0,0.0,75,0.00,,,0.00,VWS V14.01,2013-08-12 15:48:00,
2013-08-12 08:50:00,61.8,53.8,29.99,SSW,196,0.0,2.0,75,0.00,,,0.00,VWS V14.01,2013-08-12 15:50:00,
2013-08-12 08:51:00,61.8,53.8,29.99,SSW,198,0.0,2.0,75,0.00,,,0.00,VWS V14.01,2013-08-12 15:51:00,
2013-08-12 08:56:00,62.1,54.5,29.99,SSW,196,1.0,2.0,76,0.00,,,0.00,VWS V14.01,2013-08-12 15:56:00,
2013-08-12 08:57:00,62.1,54.5,29.99,SSW,196,0.0,1.0,76,0.00,,,0.00,VWS V14.01,2013-08-12 15:57:00,
2013-08-12 08:59:00,62.1,54.1,29.99,SSW,196,0.0,1.0,75,0.00,,,0.00,VWS V14.01,2013-08-12 15:59:00,
2013-08-12 09:01:00,62.1,54.1,29.99,SSW,196,2.0,2.0,75,0.00,,,0.00,VWS V14.01,2013-08-12 16:01:00,
2013-08-12 09:04:00,62.1,54.1,29.99,SSW,196,0.0,2.0,75,0.00,,,0.00,VWS V14.01,2013-08-12 16:04:00,
2013-08-12 09:06:00,62.3,54.3,29.99,SSW,196,0.0,2.0,75,0.00,,,0.00,VWS V14.01,2013-08-12 16:06:00,
2013-08-12 09:08:00,62.6,54.6,29.99,SSW,196,0.0,0.0,75,0.00,,,0.00,VWS V14.01,2013-08-12 16:08:00,
2013-08-12 09:09:00,62.6,54.6,29.99,SSW,196,0.0,0.0,75,0.00,,,0.00,VWS V14.01,2013-08-12 16:09:00,
2013-08-12 09:11:00,62.9,54.5,29.99,SSW,202,1.0,1.0,74,0.00,,,0.00,VWS V14.01,2013-08-12 16:11:00,
2013-08-12 09:13:00,63.1,54.7,29.99,SSW,202,0.0,2.0,74,0.00,,,0.00,VWS V14.01,2013-08-12 16:13:00,
2013-08-12 09:15:00,63.2,54.8,29.99,SSW,202,0.0,2.0,74,0.00,,,0.00,VWS V14.01,2013-08-12 16:15:00,
2013-08-12 09:16:00,63.2,54.8,29.99,SSW,202,0.0,2.0,74,0.00,,,0.00,VWS V14.01,2013-08-12 16:16:00,
2013-08-12 09:19:00,63.4,54.6,29.99,SSW,202,0.0,0.0,73,0.00,,,0.00,VWS V14.01,2013-08-12 16:19:00,
2013-08-12 09:20:00,63.4,54.6,29.99,SSW,202,0.0,0.0,73,0.00,,,0.00,VWS V14.01,2013-08-12 16:20:00,
2013-08-12 09:21:00,63.4,54.6,29.99,SSW,202,0.0,0.0,73,0.00,,,0.00,VWS V14.01,2013-08-12 16:21:00,
2013-08-12 09:24:00,63.5,54.7,29.99,SSW,202,0.0,2.0,73,0.00,,,0.00,VWS V14.01,2013-08-12 16:24:00,
2013-08-12 09:25:00,63.5,54.7,29.99,SSW,202,0.0,2.0,73,0.00,,,0.00,VWS V14.01,2013-08-12 16:25:00,
2013-08-12 09:26:00,63.5,54.7,29.99,SSW,202,0.0,2.0,73,0.00,,,0.00,VWS V14.01,2013-08-12 16:26:00,
2013-08-12 09:28:00,63.7,54.5,29.99,SSW,202,2.0,2.0,72,0.00,,,0.00,VWS V14.01,2013-08-12 16:28:00,
2013-08-12 09:30:00,63.7,54.5,29.99,SSW,202,0.0,2.0,72,0.00,,,0.00,VWS V14.01,2013-08-12 16:30:00,
2013-08-12 09:31:00,63.9,54.7,29.99,SSW,202,0.0,0.0,72,0.00,,,0.00,VWS V14.01,2013-08-12 16:31:00,
2013-08-12 09:34:00,64.0,54.8,29.99,SSW,202,1.0,2.0,72,0.00,,,0.00,VWS V14.01,2013-08-12 16:34:00,
2013-08-12 09:35:00,64.0,55.2,29.99,SSW,203,0.0,2.0,73,0.00,,,0.00,VWS V14.01,2013-08-12 16:35:00,
2013-08-12 09:37:00,64.2,55.4,29.99,SSW,203,1.0,1.0,73,0.00,,,0.00,VWS V14.01,2013-08-12 16:37:00,
2013-08-12 09:40:00,64.2,55.0,29.99,SSW,203,0.0,3.0,72,0.00,,,0.00,VWS V14.01,2013-08-12 16:40:00,
2013-08-12 09:41:00,64.2,55.0,29.99,SSW,203,0.0,3.0,72,0.00,,,0.00,VWS V14.01,2013-08-12 16:41:00,
2013-08-12 09:42:00,64.2,55.0,29.99,SSW,203,0.0,0.0,72,0.00,,,0.00,VWS V14.01,2013-08-12 16:42:00,
2013-08-12 09:46:00,64.3,55.1,29.99,SSW,203,0.0,0.0,72,0.00,,,0.00,VWS V14.01,2013-08-12 16:46:00,
2013-08-12 09:49:00,64.3,54.7,29.99,SSW,203,0.0,0.0,71,0.00,,,0.00,VWS V14.01,2013-08-12 16:49:00,
2013-08-12 09:51:00,64.5,54.9,29.99,SE,130,1.0,1.0,71,0.00,,,0.00,VWS V14.01,2013-08-12 16:51:00,
2013-08-12 09:52:00,64.5,54.9,29.99,SE,130,1.0,2.0,71,0.00,,,0.00,VWS V14.01,2013-08-12 16:52:00,
2013-08-12 09:56:00,64.5,54.9,29.99,SW,227,4.0,6.0,71,0.00,,,0.00,VWS V14.01,2013-08-12 16:56:00,
2013-08-12 09:57:00,64.5,54.9,29.99,SW,234,1.0,6.0,71,0.00,,,0.00,VWS V14.01,2013-08-12 16:57:00,
2013-08-12 10:00:00,64.5,54.9,29.99,West,272,3.0,6.0,71,0.00,,OVC050,0.00,VWS V14.01,2013-08-12 17:00:00,
2013-08-12 10:01:00,64.5,54.5,29.99,West,272,1.0,1.0,70,0.00,,OVC050,0.00,VWS V14.01,2013-08-12 17:01:00,
2013-08-12 10:02:00,64.5,54.5,29.99,West,272,0.0,2.0,70,0.00,,OVC050,0.00,VWS V14.01,2013-08-12 17:02:00,
2013-08-12 10:03:00,64.5,54.5,29.99,West,272,0.0,2.0,70,0.00,,OVC050,0.00,VWS V14.01,2013-08-12 17:03:00,
2013-08-12 10:04:00,64.5,54.5,29.99,West,272,0.0,2.0,70,0.00,,OVC050,0.00,VWS V14.01,2013-08-12 17:04:00,
2013-08-12 10:06:00,64.7,54.7,29.99,West,272,0.0,0.0,70,0.00,,OVC050,0.00,VWS V14.01,2013-08-12 17:06:00,
2013-08-12 10:07:00,64.8,54.8,29.99,East,93,2.0,3.0,70,0.00,,OVC050,0.00,VWS V14.01,2013-08-12 17:07:00,
2013-08-12 10:09:00,64.8,54.8,29.99,East,93,0.0,3.0,70,0.00,,OVC050,0.00,VWS V14.01,2013-08-12 17:09:00,
2013-08-12 10:11:00,65.0,55.0,29.99,SW,230,3.0,6.0,70,0.00,,OVC050,0.00,VWS V14.01,2013-08-12 17:11:00,
2013-08-12 10:12:00,65.0,55.0,29.99,SW,230,1.0,3.0,70,0.00,,OVC050,0.00,VWS V14.01,2013-08-12 17:12:00,
2013-08-12 10:14:00,65.3,55.3,29.99,West,268,0.0,3.0,70,0.00,,OVC050,0.00,VWS V14.01,2013-08-12 17:14:00,
2013-08-12 10:15:00,65.5,55.5,29.99,West,268,0.0,3.0,70,0.00,,OVC050,0.00,VWS V14.01,2013-08-12 17:15:00,
2013-08-12 10:19:00,66.1,55.7,29.99,SW,232,3.0,6.0,69,0.00,,OVC050,0.00,VWS V14.01,2013-08-12 17:19:00,
2013-08-12 10:20:00,66.3,55.8,29.99,West,280,4.0,6.0,69,0.00,,OVC050,0.00,VWS V14.01,2013-08-12 17:20:00,
2013-08-12 10:21:00,66.3,55.8,29.99,WNW,294,6.0,6.0,69,0.00,,OVC050,0.00,VWS V14.01,2013-08-12 17:21:00,
2013-08-12 10:23:00,66.4,55.1,29.99,NW,312,0.0,6.0,67,0.00,,OVC050,0.00,VWS V14.01,2013-08-12 17:23:00,
2013-08-12 10:24:00,66.4,55.1,29.99,NW,312,0.0,6.0,67,0.00,,OVC050,0.00,VWS V14.01,2013-08-12 17:24:00,
2013-08-12 10:26:00,66.4,55.1,29.99,NW,319,0.0,6.0,67,0.00,,OVC050,0.00,VWS V14.01,2013-08-12 17:26:00,
2013-08-12 10:27:00,66.6,55.3,29.99,North,0,1.0,2.0,67,0.00,,OVC050,0.00,VWS V14.01,2013-08-12 17:27:00,
2013-08-12 10:30:00,66.8,55.5,29.99,North,0,0.0,3.0,67,0.00,,OVC050,0.00,VWS V14.01,2013-08-12 17:30:00,
2013-08-12 10:31:00,66.9,55.6,29.99,North,0,0.0,0.0,67,0.00,,OVC050,0.00,VWS V14.01,2013-08-12 17:31:00,
2013-08-12 10:32:00,67.1,55.8,29.99,North,0,0.0,0.0,67,0.00,,OVC050,0.00,VWS V14.01,2013-08-12 17:32:00,
2013-08-12 10:33:00,67.1,55.4,29.99,North,0,0.0,0.0,66,0.00,,OVC050,0.00,VWS V14.01,2013-08-12 17:33:00,
2013-08-12 10:37:00,67.6,55.8,29.99,NW,320,2.0,7.0,66,0.00,,OVC050,0.00,VWS V14.01,2013-08-12 17:37:00,
2013-08-12 10:39:00,67.8,55.6,29.99,WNW,299,5.0,7.0,65,0.00,,OVC050,0.00,VWS V14.01,2013-08-12 17:39:00,
2013-08-12 10:40:00,67.8,56.0,29.99,West,281,0.0,7.0,66,0.00,,OVC050,0.00,VWS V14.01,2013-08-12 17:40:00,
2013-08-12 10:42:00,67.9,55.7,29.99,SW,233,3.0,6.0,65,0.00,,OVC050,0.00,VWS V14.01,2013-08-12 17:42:00,
2013-08-12 10:43:00,67.9,55.7,29.99,NW,304,0.0,6.0,65,0.00,,OVC050,0.00,VWS V14.01,2013-08-12 17:43:00,
2013-08-12 10:45:00,68.1,56.3,29.99,WNW,294,1.0,6.0,66,0.00,,OVC050,0.00,VWS V14.01,2013-08-12 17:45:00,
2013-08-12 10:46:00,68.1,56.3,29.99,West,272,6.0,6.0,66,0.00,,OVC050,0.00,VWS V14.01,2013-08-12 17:46:00,
2013-08-12 10:48:00,68.1,56.3,29.99,NW,311,2.0,6.0,66,0.00,,OVC050,0.00,VWS V14.01,2013-08-12 17:48:00,
2013-08-12 10:49:00,68.1,55.9,29.99,NW,320,0.0,6.0,65,0.00,,OVC050,0.00,VWS V14.01,2013-08-12 17:49:00,
2013-08-12 10:52:00,67.9,55.7,29.99,WNW,299,1.0,2.0,65,0.00,,OVC050,0.00,VWS V14.01,2013-08-12 17:52:00,
2013-08-12 10:53:00,67.9,55.7,29.99,WNW,301,0.0,2.0,65,0.00,,OVC050,0.00,VWS V14.01,2013-08-12 17:53:00,
2013-08-12 10:54:00,67.9,55.7,29.99,WNW,301,0.0,2.0,65,0.00,,OVC050,0.00,VWS V14.01,2013-08-12 17:54:00,
2013-08-12 10:55:00,67.8,55.6,29.99,WNW,301,0.0,2.0,65,0.00,,OVC050,0.00,VWS V14.01,2013-08-12 17:55:00,
2013-08-12 10:56:00,67.8,55.6,29.99,WNW,301,0.0,2.0,65,0.00,,OVC050,0.00,VWS V14.01,2013-08-12 17:56:00,
2013-08-12 10:58:00,67.8,55.6,29.99,WNW,301,0.0,0.0,65,0.00,,OVC050,0.00,VWS V14.01,2013-08-12 17:58:00,
2013-08-12 11:00:00,67.8,55.6,29.99,WNW,301,0.0,0.0,65,0.00,,OVC050,0.00,VWS V14.01,2013-08-12 18:00:00,
2013-08-12 11:01:00,67.8,56.0,29.99,WNW,301,0.0,0.0,66,0.00,,OVC050,0.00,VWS V14.01,2013-08-12 18:01:00,
2013-08-12 11:04:00,67.6,55.4,29.99,West,260,0.0,5.0,65,0.00,,OVC050,0.00,VWS V14.01,2013-08-12 18:04:00,
2013-08-12 11:06:00,67.6,55.4,29.99,West,260,0.0,5.0,65,0.00,,OVC050,0.00,VWS V14.01,2013-08-12 18:06:00,
2013-08-12 11:07:00,67.4,55.7,29.99,West,260,0.0,1.0,66,0.00,,OVC050,0.00,VWS V14.01,2013-08-12 18:07:00,
2013-08-12 11:09:00,67.3,55.6,29.99,West,260,0.0,1.0,66,0.00,,OVC050,0.00,VWS V14.01,2013-08-12 18:09:00,
2013-08-12 11:13:00,67.3,56.0,29.99,West,260,0.0,0.0,67,0.00,,OVC050,0.00,VWS V14.01,2013-08-12 18:13:00,
2013-08-12 11:14:00,67.3,56.0,29.99,West,260,0.0,0.0,67,0.00,,OVC050,0.00,VWS V14.01,2013-08-12 18:14:00,
2013-08-12 11:15:00,67.3,55.6,29.99,West,260,4.0,4.0,66,0.00,,OVC050,0.00,VWS V14.01,2013-08-12 18:15:00,
2013-08-12 11:16:00,67.3,55.6,29.99,West,260,0.0,4.0,66,0.00,,OVC050,0.00,VWS V14.01,2013-08-12 18:16:00,
2013-08-12 11:21:00,67.4,55.7,29.99,SSE,167,0.0,0.0,66,0.00,,OVC050,0.00,VWS V14.01,2013-08-12 18:21:00,
2013-08-12 11:24:00,67.6,56.3,29.99,SSE,162,0.0,0.0,67,0.00,,OVC050,0.00,VWS V14.01,2013-08-12 18:24:00,
2013-08-12 11:25:00,67.8,56.5,29.99,SSE,162,0.0,0.0,67,0.00,,OVC050,0.00,VWS V14.01,2013-08-12 18:25:00,
2013-08-12 11:26:00,67.9,56.1,29.99,SSW,209,1.0,1.0,66,0.00,,OVC050,0.00,VWS V14.01,2013-08-12 18:26:00,
2013-08-12 11:31:00,68.4,55.8,29.99,SSE,157,0.0,5.0,64,0.00,,OVC050,0.00,VWS V14.01,2013-08-12 18:31:00,
2013-08-12 11:32:00,68.6,56.0,29.99,SSE,157,0.0,0.0,64,0.00,,OVC050,0.00,VWS V14.01,2013-08-12 18:32:00,
2013-08-12 11:35:00,69.1,56.0,29.99,SW,226,4.0,4.0,63,0.00,,OVC050,0.00,VWS V14.01,2013-08-12 18:35:00,
2013-08-12 11:36:00,69.4,55.8,29.99,SW,224,6.0,6.0,62,0.00,,OVC050,0.00,VWS V14.01,2013-08-12 18:36:00,
2013-08-12 11:38:00,69.4,55.8,29.99,South,185,12.0,12.0,62,0.00,,OVC050,0.00,VWS V14.01,2013-08-12 18:38:00,
2013-08-12 11:41:00,69.4,55.8,29.99,SW,226,2.0,12.0,62,0.00,,OVC050,0.00,VWS V14.01,2013-08-12 18:41:00,
2013-08-12 11:44:00,69.4,56.3,29.99,SSW,203,1.0,5.0,63,0.00,,OVC050,0.00,VWS V14.01,2013-08-12 18:44:00,
2013-08-12 11:46:00,69.4,56.3,29.98,West,277,0.0,0.0,63,0.00,,OVC050,0.00,VWS V14.01,2013-08-12 18:46:00,
2013-08-12 11:47:00,69.6,56.5,29.98,West,275,0.0,1.0,63,0.00,,OVC050,0.00,VWS V14.01,2013-08-12 18:47:00,
2013-08-12 11:49:00,70.1,56.5,29.98,NW,312,3.0,5.0,62,0.00,,OVC050,0.00,VWS V14.01,2013-08-12 18:49:00,
2013-08-12 11:50:00,70.3,56.7,29.98,WNW,302,1.0,7.0,62,0.00,,OVC050,0.00,VWS V14.01,2013-08-12 18:50:00,
2013-08-12 11:52:00,70.6,57.0,29.98,WNW,282,6.0,6.0,62,0.00,,OVC050,0.00,VWS V14.01,2013-08-12 18:52:00,
2013-08-12 11:53:00,70.6,56.1,29.98,West,277,4.0,6.0,60,0.00,,OVC050,0.00,VWS V14.01,2013-08-12 18:53:00,
2013-08-12 11:55:00,70.6,56.1,29.98,West,275,0.0,6.0,60,0.00,,OVC050,0.00,VWS V14.01,2013-08-12 18:55:00,
2013-08-12 11:58:00,70.8,55.8,29.98,NW,315,0.0,6.0,59,0.00,,OVC050,0.00,VWS V14.01,2013-08-12 18:58:00,
2013-08-12 12:00:00,70.9,55.9,29.98,NW,315,0.0,6.0,59,0.00,,OVC055,0.00,VWS V14.01,2013-08-12 19:00:00,
2013-08-12 12:01:00,70.9,55.9,29.98,NW,315,2.0,6.0,59,0.00,,OVC055,0.00,VWS V14.01,2013-08-12 19:01:00,
2013-08-12 12:02:00,70.9,55.9,29.98,WSW,250,0.0,7.0,59,0.00,,OVC055,0.00,VWS V14.01,2013-08-12 19:02:00,
2013-08-12 12:05:00,70.9,55.4,29.98,South,185,2.0,7.0,58,0.00,,OVC055,0.00,VWS V14.01,2013-08-12 19:05:00,
2013-08-12 12:06:00,70.9,55.4,29.98,SSW,192,0.0,0.0,58,0.00,,OVC055,0.00,VWS V14.01,2013-08-12 19:06:00,
2013-08-12 12:07:00,70.9,56.3,29.98,SSW,192,0.0,0.0,60,0.00,,OVC055,0.00,VWS V14.01,2013-08-12 19:07:00,
2013-08-12 12:08:00,71.1,56.5,29.98,SSW,192,0.0,0.0,60,0.00,,OVC055,0.00,VWS V14.01,2013-08-12 19:08:00,
2013-08-12 12:11:00,71.6,56.5,29.98,West,271,0.0,6.0,59,0.00,,OVC055,0.00,VWS V14.01,2013-08-12 19:11:00,
2013-08-12 12:12:00,71.8,56.7,29.98,West,275,2.0,4.0,59,0.00,,OVC055,0.00,VWS V14.01,2013-08-12 19:12:00,
2013-08-12 12:13:00,71.8,55.8,29.98,West,277,0.0,4.0,57,0.00,,OVC055,0.00,VWS V14.01,2013-08-12 19:13:00,
2013-08-12 12:14:00,72.0,56.0,29.98,West,281,0.0,4.0,57,0.00,,OVC055,0.00,VWS V14.01,2013-08-12 19:14:00,
2013-08-12 12:15:00,72.0,56.0,29.98,WSW,247,0.0,4.0,57,0.00,,OVC055,0.00,VWS V14.01,2013-08-12 19:15:00,
2013-08-12 12:19:00,72.1,56.0,29.98,NW,326,3.0,5.0,57,0.00,,OVC055,0.00,VWS V14.01,2013-08-12 19:19:00,
2013-08-12 12:21:00,72.1,56.5,29.98,NW,325,6.0,6.0,58,0.00,,OVC055,0.00,VWS V14.01,2013-08-12 19:21:00,
2013-08-12 12:23:00,71.8,55.8,29.98,NW,323,2.0,11.0,57,0.00,,OVC055,0.00,VWS V14.01,2013-08-12 19:23:00,
2013-08-12 12:25:00,72.0,55.5,29.98,NW,322,5.0,11.0,56,0.00,,OVC055,0.00,VWS V14.01,2013-08-12 19:25:00,
2013-08-12 12:26:00,71.8,55.3,29.98,NW,323,0.0,11.0,56,0.00,,OVC055,0.00,VWS V14.01,2013-08-12 19:26:00,
2013-08-12 12:27:00,71.8,55.3,29.98,NW,326,0.0,4.0,56,0.00,,OVC055,0.00,VWS V14.01,2013-08-12 19:27:00,
2013-08-12 12:30:00,71.8,55.8,29.98,NW,322,2.0,6.0,57,0.00,,OVC055,0.00,VWS V14.01,2013-08-12 19:30:00,
2013-08-12 12:31:00,71.8,55.3,29.98,WNW,301,4.0,5.0,56,0.00,,OVC055,0.00,VWS V14.01,2013-08-12 19:31:00,
2013-08-12 12:36:00,72.0,56.4,29.98,SW,217,0.0,6.0,58,0.00,,OVC055,0.00,VWS V14.01,2013-08-12 19:36:00,
2013-08-12 12:38:00,72.1,56.5,29.98,NW,322,5.0,6.0,58,0.00,,OVC055,0.00,VWS V14.01,2013-08-12 19:38:00,
2013-08-12 12:39:00,72.1,56.0,29.98,NW,322,0.0,6.0,57,0.00,,OVC055,0.00,VWS V14.01,2013-08-12 19:39:00,
2013-08-12 12:41:00,72.1,56.5,29.98,SW,224,2.0,6.0,58,0.00,,OVC055,0.00,VWS V14.01,2013-08-12 19:41:00,
2013-08-12 12:43:00,72.0,56.9,29.98,NW,309,3.0,8.0,59,0.00,,OVC055,0.00,VWS V14.01,2013-08-12 19:43:00,
2013-08-12 12:45:00,72.1,56.5,29.98,WSW,243,4.0,8.0,58,0.00,,OVC055,0.00,VWS V14.01,2013-08-12 19:45:00,
2013-08-12 12:47:00,72.3,56.2,29.97,WNW,301,1.0,7.0,57,0.00,,OVC055,0.00,VWS V14.01,2013-08-12 19:47:00,
2013-08-12 12:48:00,72.5,56.4,29.97,WNW,301,1.0,7.0,57,0.00,,OVC055,0.00,VWS V14.01,2013-08-12 19:48:00,
2013-08-12 12:50:00,72.8,56.7,29.97,WNW,298,0.0,7.0,57,0.00,,OVC055,0.00,VWS V14.01,2013-08-12 19:50:00,
2013-08-12 12:53:00,73.3,55.7,29.97,WNW,282,0.0,3.0,54,0.00,,OVC055,0.00,VWS V14.01,2013-08-12 19:53:00,
2013-08-12 12:56:00,73.2,56.1,29.97,SSW,198,5.0,8.0,55,0.00,,OVC055,0.00,VWS V14.01,2013-08-12 19:56:00,
2013-08-12 12:57:00,73.0,56.4,29.97,WSW,240,6.0,8.0,56,0.00,,OVC055,0.00,VWS V14.01,2013-08-12 19:57:00,
2013-08-12 12:58:00,72.8,55.7,29.97,SSW,196,4.0,8.0,55,0.00,,OVC055,0.00,VWS V14.01,2013-08-12 19:58:00,
2013-08-12 12:59:00,72.7,56.1,29.97,SW,219,4.0,8.0,56,0.00,,OVC055,0.00,VWS V14.01,2013-08-12 19:59:00,
2013-08-12 13:01:00,72.7,56.1,29.97,WSW,246,1.0,8.0,56,0.00,,CLR,0.00,VWS V14.01,2013-08-12 20:01:00,
2013-08-12 13:03:00,72.7,56.6,29.97,NW,316,4.0,10.0,57,0.00,,CLR,0.00,VWS V14.01,2013-08-12 20:03:00,
2013-08-12 13:04:00,72.7,57.1,29.97,SSW,198,5.0,10.0,58,0.00,,CLR,0.00,VWS V14.01,2013-08-12 20:04:00,
2013-08-12 13:06:00,72.8,57.2,29.97,WSW,239,2.0,10.0,58,0.00,,CLR,0.00,VWS V14.01,2013-08-12 20:06:00,
2013-08-12 13:07:00,72.8,56.2,29.97,NW,325,4.0,7.0,56,0.00,,CLR,0.00,VWS V14.01,2013-08-12 20:07:00,
2013-08-12 13:08:00,72.8,56.2,29.97,WNW,298,2.0,7.0,56,0.00,,CLR,0.00,VWS V14.01,2013-08-12 20:08:00,
2013-08-12 13:12:00,73.2,56.1,29.97,NW,305,0.0,1.0,55,0.00,,CLR,0.00,VWS V14.01,2013-08-12 20:12:00,
2013-08-12 13:14:00,73.0,55.9,29.97,SW,232,0.0,3.0,55,0.00,,CLR,0.00,VWS V14.01,2013-08-12 20:14:00,
2013-08-12 13:15:00,73.0,55.4,29.97,SW,232,0.0,3.0,54,0.00,,CLR,0.00,VWS V14.01,2013-08-12 20:15:00,
2013-08-12 13:17:00,73.2,56.1,29.97,SW,232,0.0,0.0,55,0.00,,CLR,0.00,VWS V14.01,2013-08-12 20:17:00,
2013-08-12 13:19:00,73.0,55.4,29.97,SW,233,0.0,1.0,54,0.00,,CLR,0.00,VWS V14.01,2013-08-12 20:19:00,
2013-08-12 13:20:00,73.0,55.9,29.97,WSW,247,2.0,3.0,55,0.00,,CLR,0.00,VWS V14.01,2013-08-12 20:20:00,
2013-08-12 13:21:00,73.0,55.4,29.97,WSW,244,8.0,8.0,54,0.00,,CLR,0.00,VWS V14.01,2013-08-12 20:21:00,
2013-08-12 13:22:00,72.8,55.7,29.97,SW,223,3.0,8.0,55,0.00,,CLR,0.00,VWS V14.01,2013-08-12 20:22:00,
2013-08-12 13:25:00,72.7,56.6,29.97,SW,217,1.0,8.0,57,0.00,,CLR,0.00,VWS V14.01,2013-08-12 20:25:00,
2013-08-12 13:26:00,72.5,55.9,29.97,SW,217,0.0,8.0,56,0.00,,CLR,0.00,VWS V14.01,2013-08-12 20:26:00,
2013-08-12 13:30:00,72.8,56.2,29.97,WNW,295,1.0,3.0,56,0.00,,CLR,0.00,VWS V14.01,2013-08-12 20:30:00,
2013-08-12 13:31:00,72.8,55.7,29.97,West,274,0.0,5.0,55,0.00,,CLR,0.00,VWS V14.01,2013-08-12 20:31:00,
2013-08-12 13:32:00,73.0,55.9,29.97,West,274,0.0,0.0,55,0.00,,CLR,0.00,VWS V14.01,2013-08-12 20:32:00,
2013-08-12 13:33:00,73.3,56.2,29.97,WSW,243,2.0,5.0,55,0.00,,CLR,0.00,VWS V14.01,2013-08-12 20:33:00,
2013-08-12 13:36:00,73.7,55.5,29.97,NNW,333,7.0,10.0,53,0.00,,CLR,0.00,VWS V14.01,2013-08-12 20:36:00,
2013-08-12 13:37:00,73.7,56.0,29.97,NW,306,8.0,8.0,54,0.00,,CLR,0.00,VWS V14.01,2013-08-12 20:37:00,
2013-08-12 13:38:00,73.7,56.0,29.97,SSW,212,0.0,8.0,54,0.00,,CLR,0.00,VWS V14.01,2013-08-12 20:38:00,
2013-08-12 13:42:00,73.9,56.2,29.97,NW,304,4.0,7.0,54,0.00,,CLR,0.00,VWS V14.01,2013-08-12 20:42:00,
2013-08-12 13:43:00,73.7,56.0,29.97,WSW,243,3.0,7.0,54,0.00,,CLR,0.00,VWS V14.01,2013-08-12 20:43:00,
2013-08-12 13:45:00,73.5,55.3,29.97,WSW,237,6.0,8.0,53,0.00,,CLR,0.00,VWS V14.01,2013-08-12 20:45:00,
2013-08-12 13:46:00,73.3,55.2,29.97,WSW,240,0.0,8.0,53,0.00,,CLR,0.00,VWS V14.01,2013-08-12 20:46:00,
2013-08-12 13:48:00,73.5,55.9,29.97,WSW,240,3.0,3.0,54,0.00,,CLR,0.00,VWS V14.01,2013-08-12 20:48:00,
2013-08-12 13:49:00,73.5,55.9,29.97,SSW,200,3.0,5.0,54,0.00,,CLR,0.00,VWS V14.01,2013-08-12 20:49:00,
2013-08-12 13:51:00,73.5,55.9,29.97,SW,220,0.0,6.0,54,0.00,,CLR,0.00,VWS V14.01,2013-08-12 20:51:00,
2013-08-12 13:52:00,73.7,56.5,29.97,SW,220,3.0,3.0,55,0.00,,CLR,0.00,VWS V14.01,2013-08-12 20:52:00,
2013-08-12 13:54:00,73.7,56.0,29.97,WSW,248,2.0,7.0,54,0.00,,CLR,0.00,VWS V14.01,2013-08-12 20:54:00,
2013-08-12 13:56:00,73.9,55.7,29.97,WSW,237,2.0,7.0,53,0.00,,CLR,0.00,VWS V14.01,2013-08-12 20:56:00,
2013-08-12 13:58:00,73.9,56.2,29.97,West,267,2.0,8.0,54,0.00,,CLR,0.00,VWS V14.01,2013-08-12 20:58:00,
2013-08-12 13:59:00,73.9,55.7,29.97,WNW,282,0.0,8.0,53,0.00,,CLR,0.00,VWS V14.01,2013-08-12 20:59:00,
2013-08-12 14:01:00,74.2,56.5,29.97,WNW,282,1.0,8.0,54,0.00,,CLR,0.00,VWS V14.01,2013-08-12 21:01:00,
2013-08-12 14:02:00,74.4,55.1,29.97,WSW,239,4.0,9.0,51,0.00,,CLR,0.00,VWS V14.01,2013-08-12 21:02:00,
2013-08-12 14:04:00,74.4,55.7,29.97,NW,308,1.0,9.0,52,0.00,,CLR,0.00,VWS V14.01,2013-08-12 21:04:00,
2013-08-12 14:06:00,74.6,55.8,29.97,West,271,0.0,9.0,52,0.00,,CLR,0.00,VWS V14.01,2013-08-12 21:06:00,
2013-08-12 14:07:00,74.6,56.4,29.97,West,270,0.0,1.0,53,0.00,,CLR,0.00,VWS V14.01,2013-08-12 21:07:00,
2013-08-12 14:10:00,74.7,55.9,29.97,SSE,162,4.0,8.0,52,0.00,,CLR,0.00,VWS V14.01,2013-08-12 21:10:00,
2013-08-12 14:11:00,74.7,55.9,29.97,SSW,196,3.0,8.0,52,0.00,,CLR,0.00,VWS V14.01,2013-08-12 21:11:00,
2013-08-12 14:12:00,74.7,55.9,29.97,NW,313,6.0,6.0,52,0.00,,CLR,0.00,VWS V14.01,2013-08-12 21:12:00,
2013-08-12 14:13:00,74.6,55.8,29.97,WNW,284,2.0,6.0,52,0.00,,CLR,0.00,VWS V14.01,2013-08-12 21:13:00,
2013-08-12 14:15:00,74.7,56.5,29.97,West,281,2.0,6.0,53,0.00,,CLR,0.00,VWS V14.01,2013-08-12 21:15:00,
2013-08-12 14:16:00,74.7,56.5,29.97,SW,234,2.0,3.0,53,0.00,,CLR,0.00,VWS V14.01,2013-08-12 21:16:00,
2013-08-12 14:20:00,74.9,56.6,29.97,West,275,7.0,8.0,53,0.00,,CLR,0.00,VWS V14.01,2013-08-12 21:20:00,
2013-08-12 14:22:00,74.9,56.1,29.97,SSW,212,2.0,8.0,52,0.00,,CLR,0.00,VWS V14.01,2013-08-12 21:22:00,
2013-08-12 14:25:00,74.9,56.1,29.97,WSW,246,2.0,8.0,52,0.00,,CLR,0.00,VWS V14.01,2013-08-12 21:25:00,
2013-08-12 14:26:00,74.9,56.6,29.97,SSW,209,3.0,8.0,53,0.00,,CLR,0.00,VWS V14.01,2013-08-12 21:26:00,
2013-08-12 14:28:00,74.9,56.6,29.97,WNW,289,3.0,6.0,53,0.00,,CLR,0.00,VWS V14.01,2013-08-12 21:28:00,
2013-08-12 14:30:00,74.9,56.1,29.97,SSW,198,3.0,6.0,52,0.00,,CLR,0.00,VWS V14.01,2013-08-12 21:30:00,
2013-08-12 14:31:00,75.1,56.3,29.97,SW,220,4.0,4.0,52,0.00,,CLR,0.00,VWS V14.01,2013-08-12 21:31:00,
2013-08-12 14:34:00,75.3,55.9,29.97,WNW,291,2.0,6.0,51,0.00,,CLR,0.00,VWS V14.01,2013-08-12 21:34:00,
2013-08-12 14:36:00,75.3,55.9,29.97,SW,224,5.0,5.0,51,0.00,,CLR,0.00,VWS V14.01,2013-08-12 21:36:00,
2013-08-12 14:37:00,75.4,57.1,29.97,NW,326,9.0,9.0,53,0.00,,CLR,0.00,VWS V14.01,2013-08-12 21:37:00,
2013-08-12 14:38:00,75.3,55.9,29.97,NW,323,7.0,10.0,51,0.00,,CLR,0.00,VWS V14.01,2013-08-12 21:38:00,
2013-08-12 14:40:00,75.3,56.5,29.97,NW,320,5.0,10.0,52,0.00,,CLR,0.00,VWS V14.01,2013-08-12 21:40:00,
2013-08-12 14:41:00,75.1,55.8,29.97,WSW,254,5.0,6.0,51,0.00,,CLR,0.00,VWS V14.01,2013-08-12 21:41:00,
2013-08-12 14:43:00,74.9,56.1,29.97,WNW,282,0.0,6.0,52,0.00,,CLR,0.00,VWS V14.01,2013-08-12 21:43:00,
2013-08-12 14:44:00,74.9,56.1,29.97,WNW,282,0.0,6.0,52,0.00,,CLR,0.00,VWS V14.01,2013-08-12 21:44:00,
2013-08-12 14:46:00,74.9,56.1,29.96,NW,315,3.0,6.0,52,0.00,,CLR,0.00,VWS V14.01,2013-08-12 21:46:00,
2013-08-12 14:47:00,74.9,55.6,29.96,NW,316,2.0,7.0,51,0.00,,CLR,0.00,VWS V14.01,2013-08-12 21:47:00,
2013-08-12 14:49:00,74.9,55.6,29.96,NW,308,5.0,10.0,51,0.00,,CLR,0.00,VWS V14.01,2013-08-12 21:49:00,
2013-08-12 14:50:00,74.9,56.1,29.96,NW,316,0.0,10.0,52,0.00,,CLR,0.00,VWS V14.01,2013-08-12 21:50:00,
2013-08-12 14:51:00,74.9,56.1,29.96,NW,323,1.0,10.0,52,0.00,,CLR,0.00,VWS V14.01,2013-08-12 21:51:00,
2013-08-12 14:52:00,74.9,55.6,29.96,WNW,287,4.0,5.0,51,0.00,,CLR,0.00,VWS V14.01,2013-08-12 21:52:00,
2013-08-12 14:55:00,74.7,55.9,29.96,NW,315,3.0,7.0,52,0.00,,CLR,0.00,VWS V14.01,2013-08-12 21:55:00,
2013-08-12 14:56:00,74.7,56.5,29.96,West,281,0.0,5.0,53,0.00,,CLR,0.00,VWS V14.01,2013-08-12 21:56:00,
2013-08-12 14:57:00,74.9,56.6,29.96,WNW,284,0.0,5.0,53,0.00,,CLR,0.00,VWS V14.01,2013-08-12 21:57:00,
2013-08-12 14:59:00,74.9,56.1,29.96,WSW,244,5.0,9.0,52,0.00,,CLR,0.00,VWS V14.01,2013-08-12 21:59:00,
2013-08-12 15:03:00,74.9,56.1,29.96,NW,305,0.0,6.0,52,0.00,,FEW038,0.00,VWS V14.01,2013-08-12 22:03:00,
2013-08-12 15:04:00,74.9,56.1,29.96,NW,305,0.0,6.0,52,0.00,,FEW038,0.00,VWS V14.01,2013-08-12 22:04:00,
2013-08-12 15:06:00,74.9,56.1,29.96,WSW,251,1.0,6.0,52,0.00,,FEW038,0.00,VWS V14.01,2013-08-12 22:06:00,
2013-08-12 15:07:00,74.7,55.9,29.96,West,278,4.0,5.0,52,0.00,,FEW038,0.00,VWS V14.01,2013-08-12 22:07:00,
2013-08-12 15:10:00,74.7,55.9,29.96,West,263,4.0,7.0,52,0.00,,FEW038,0.00,VWS V14.01,2013-08-12 22:10:00,
2013-08-12 15:12:00,74.6,55.3,29.96,NW,319,3.0,7.0,51,0.00,,FEW038,0.00,VWS V14.01,2013-08-12 22:12:00,
2013-08-12 15:14:00,74.4,56.2,29.96,NW,315,4.0,7.0,53,0.00,,FEW038,0.00,VWS V14.01,2013-08-12 22:14:00,
2013-08-12 15:15:00,74.4,55.7,29.96,West,281,2.0,7.0,52,0.00,,FEW038,0.00,VWS V14.01,2013-08-12 22:15:00,
2013-08-12 15:16:00,74.4,55.7,29.96,NW,309,1.0,7.0,52,0.00,,FEW038,0.00,VWS V14.01,2013-08-12 22:16:00,
2013-08-12 15:18:00,74.2,56.0,29.96,NNW,344,3.0,6.0,53,0.00,,FEW038,0.00,VWS V14.01,2013-08-12 22:18:00,
2013-08-12 15:20:00,74.2,56.0,29.96,NNW,344,0.0,6.0,53,0.00,,FEW038,0.00,VWS V14.01,2013-08-12 22:20:00,
2013-08-12 15:21:00,74.2,56.0,29.96,NNW,342,0.0,6.0,53,0.00,,FEW038,0.00,VWS V14.01,2013-08-12 22:21:00,
2013-08-12 15:23:00,74.2,55.5,29.96,SW,220,2.0,8.0,52,0.00,,FEW038,0.00,VWS V14.01,2013-08-12 22:23:00,
2013-08-12 15:26:00,74.2,56.0,29.96,West,265,5.0,10.0,53,0.00,,FEW038,0.00,VWS V14.01,2013-08-12 22:26:00,
2013-08-12 15:27:00,74.4,56.2,29.96,SSW,213,5.0,8.0,53,0.00,,FEW038,0.00,VWS V14.01,2013-08-12 22:27:00,
2013-08-12 15:28:00,74.4,55.7,29.96,SW,223,2.0,8.0,52,0.00,,FEW038,0.00,VWS V14.01,2013-08-12 22:28:00,
2013-08-12 15:29:00,74.6,55.8,29.96,NW,319,0.0,8.0,52,0.00,,FEW038,0.00,VWS V14.01,2013-08-12 22:29:00,
2013-08-12 15:31:00,74.9,56.1,29.95,West,263,3.0,8.0,52,0.00,,FEW038,0.00,VWS V14.01,2013-08-12 22:31:00,
2013-08-12 15:33:00,75.1,55.2,29.95,West,263,6.0,8.0,50,0.00,,FEW038,0.00,VWS V14.01,2013-08-12 22:33:00,
2013-08-12 15:34:00,75.1,55.2,29.95,WSW,251,7.0,8.0,50,0.00,,FEW038,0.00,VWS V14.01,2013-08-12 22:34:00,
2013-08-12 15:37:00,75.1,55.2,29.95,NNW,342,6.0,8.0,50,0.00,,FEW038,0.00,VWS V14.01,2013-08-12 22:37:00,
2013-08-12 15:38:00,74.9,55.0,29.95,NE,49,4.0,8.0,50,0.00,,FEW038,0.00,VWS V14.01,2013-08-12 22:38:00,
2013-08-12 15:39:00,74.9,55.0,29.95,NW,325,6.0,10.0,50,0.00,,FEW038,0.00,VWS V14.01,2013-08-12 22:39:00,
2013-08-12 15:41:00,74.7,55.9,29.95,NW,323,0.0,10.0,52,0.00,,FEW038,0.00,VWS V14.01,2013-08-12 22:41:00,
2013-08-12 15:43:00,74.7,55.9,29.95,NNW,330,0.0,1.0,52,0.00,,FEW038,0.00,VWS V14.01,2013-08-12 22:43:00,
2013-08-12 15:44:00,74.9,56.1,29.95,NNW,330,0.0,1.0,52,0.00,,FEW038,0.00,VWS V14.01,2013-08-12 22:44:00,
2013-08-12 15:45:00,75.1,56.3,29.95,WSW,239,6.0,6.0,52,0.00,,FEW038,0.00,VWS V14.01,2013-08-12 22:45:00,
2013-08-12 15:47:00,75.4,55.5,29.95,WNW,294,3.0,6.0,50,0.00,,FEW038,0.00,VWS V14.01,2013-08-12 22:47:00,
2013-08-12 15:50:00,75.6,55.7,29.95,West,272,5.0,8.0,50,0.00,,FEW038,0.00,VWS V14.01,2013-08-12 22:50:00,
2013-08-12 15:52:00,75.6,55.7,29.95,NW,311,6.0,6.0,50,0.00,,FEW038,0.00,VWS V14.01,2013-08-12 22:52:00,
2013-08-12 15:53:00,75.6,55.1,29.95,WNW,298,1.0,6.0,49,0.00,,FEW038,0.00,VWS V14.01,2013-08-12 22:53:00,
2013-08-12 15:55:00,75.8,55.3,29.95,NW,319,0.0,7.0,49,0.00,,FEW038,0.00,VWS V14.01,2013-08-12 22:55:00,
2013-08-12 15:57:00,75.8,55.3,29.95,NNW,342,5.0,7.0,49,0.00,,FEW038,0.00,VWS V14.01,2013-08-12 22:57:00,
2013-08-12 15:58:00,75.8,55.3,29.95,NNW,332,0.0,7.0,49,0.00,,FEW038,0.00,VWS V14.01,2013-08-12 22:58:00,
2013-08-12 15:59:00,75.8,55.3,29.95,NNE,25,2.0,7.0,49,0.00,,FEW038,0.00,VWS V14.01,2013-08-12 22:59:00,
2013-08-12 16:02:00,75.8,55.3,29.95,NNW,332,3.0,3.0,49,0.00,,FEW044,0.00,VWS V14.01,2013-08-12 23:02:00,
2013-08-12 16:03:00,75.8,55.9,29.95,SW,226,3.0,6.0,50,0.00,,FEW044,0.00,VWS V14.01,2013-08-12 23:03:00,
2013-08-12 16:04:00,75.8,55.3,29.95,WSW,244,5.0,7.0,49,0.00,,FEW044,0.00,VWS V14.01,2013-08-12 23:04:00,
2013-08-12 16:05:00,75.8,55.3,29.95,SW,226,1.0,7.0,49,0.00,,FEW044,0.00,VWS V14.01,2013-08-12 23:05:00,
2013-08-12 16:08:00,75.8,55.3,29.95,North,350,4.0,7.0,49,0.00,,FEW044,0.00,VWS V14.01,2013-08-12 23:08:00,
2013-08-12 16:10:00,75.8,55.3,29.95,West,261,6.0,7.0,49,0.00,,FEW044,0.00,VWS V14.01,2013-08-12 23:10:00,
2013-08-12 16:12:00,75.6,55.1,29.95,NW,325,5.0,8.0,49,0.00,,FEW044,0.00,VWS V14.01,2013-08-12 23:12:00,
2013-08-12 16:15:00,75.3,54.8,29.94,NW,309,0.0,8.0,49,0.00,,FEW044,0.00,VWS V14.01,2013-08-12 23:15:00,
2013-08-12 16:16:00,75.3,54.8,29.94,NW,322,6.0,8.0,49,0.00,,FEW044,0.00,VWS V14.01,2013-08-12 23:16:00,
2013-08-12 16:17:00,75.3,55.4,29.94,NW,322,3.0,7.0,50,0.00,,FEW044,0.00,VWS V14.01,2013-08-12 23:17:00,
2013-08-12 16:19:00,75.1,55.2,29.94,North,359,5.0,7.0,50,0.00,,FEW044,0.00,VWS V14.01,2013-08-12 23:19:00,
2013-08-12 16:24:00,75.1,55.8,29.94,WNW,302,0.0,2.0,51,0.00,,FEW044,0.00,VWS V14.01,2013-08-12 23:24:00,
2013-08-12 16:25:00,75.3,55.4,29.94,ENE,66,3.0,4.0,50,0.00,,FEW044,0.00,VWS V14.01,2013-08-12 23:25:00,
2013-08-12 16:26:00,75.4,55.5,29.94,NE,38,0.0,4.0,50,0.00,,FEW044,0.00,VWS V14.01,2013-08-12 23:26:00,
2013-08-12 16:27:00,75.3,55.4,29.94,NE,38,0.0,1.0,50,0.00,,FEW044,0.00,VWS V14.01,2013-08-12 23:27:00,
2013-08-12 16:28:00,75.4,55.5,29.94,WNW,291,0.0,3.0,50,0.00,,FEW044,0.00,VWS V14.01,2013-08-12 23:28:00,
2013-08-12 16:33:00,75.6,55.1,29.94,NW,306,5.0,6.0,49,0.00,,FEW044,0.00,VWS V14.01,2013-08-12 23:33:00,
2013-08-12 16:34:00,75.8,55.3,29.94,WNW,282,1.0,6.0,49,0.00,,FEW044,0.00,VWS V14.01,2013-08-12 23:34:00,
2013-08-12 16:36:00,75.8,55.3,29.94,West,264,3.0,6.0,49,0.00,,FEW044,0.00,VWS V14.01,2013-08-12 23:36:00,
2013-08-12 16:38:00,75.8,55.3,29.94,West,260,2.0,6.0,49,0.00,,FEW044,0.00,VWS V14.01,2013-08-12 23:38:00,
2013-08-12 16:39:00,75.8,55.3,29.94,WSW,237,0.0,6.0,49,0.00,,FEW044,0.00,VWS V14.01,2013-08-12 23:39:00,
2013-08-12 16:40:00,75.8,55.3,29.94,WSW,237,0.0,6.0,49,0.00,,FEW044,0.00,VWS V14.01,2013-08-12 23:40:00,
2013-08-12 16:43:00,75.8,55.9,29.94,West,272,0.0,6.0,50,0.00,,FEW044,0.00,VWS V14.01,2013-08-12 23:43:00,
2013-08-12 16:44:00,76.0,56.0,29.94,West,274,0.0,6.0,50,0.00,,FEW044,0.00,VWS V14.01,2013-08-12 23:44:00,
2013-08-12 16:45:00,76.0,56.6,29.94,SE,127,5.0,6.0,51,0.00,,FEW044,0.00,VWS V14.01,2013-08-12 23:45:00,
2013-08-12 16:46:00,76.0,55.5,29.94,SE,127,2.0,2.0,49,0.00,,FEW044,0.00,VWS V14.01,2013-08-12 23:46:00,
2013-08-12 16:47:00,76.1,56.1,29.94,WNW,282,5.0,5.0,50,0.00,,FEW044,0.00,VWS V14.01,2013-08-12 23:47:00,
2013-08-12 16:48:00,76.1,55.6,29.94,WSW,251,1.0,6.0,49,0.00,,FEW044,0.00,VWS V14.01,2013-08-12 23:48:00,
2013-08-12 16:52:00,76.3,55.2,29.94,West,268,3.0,3.0,48,0.00,,FEW044,0.00,VWS V14.01,2013-08-12 23:52:00,
2013-08-12 16:53:00,76.3,55.2,29.94,WNW,284,6.0,6.0,48,0.00,,FEW044,0.00,VWS V14.01,2013-08-12 23:53:00,
2013-08-12 16:54:00,76.3,55.2,29.94,WNW,287,5.0,6.0,48,0.00,,FEW044,0.00,VWS V14.01,2013-08-12 23:54:00,
2013-08-12 16:56:00,76.5,55.9,29.94,WNW,288,0.0,1.0,49,0.00,,FEW044,0.00,VWS V14.01,2013-08-12 23:56:00,
2013-08-12 16:57:00,76.5,55.4,29.94,WNW,288,0.0,1.0,48,0.00,,FEW044,0.00,VWS V14.01,2013-08-12 23:57:00,
2013-08-12 16:58:00,76.7,55.5,29.94,WNW,288,0.0,1.0,48,0.00,,FEW044,0.00,VWS V14.01,2013-08-12 23:58:00,
2013-08-12 17:01:00,77.0,56.4,29.94,WNW,287,0.0,1.0,49,0.00,,SCT048,0.00,VWS V14.01,2013-08-13 00:01:00,
2013-08-12 17:02:00,77.2,56.0,29.94,WSW,240,5.0,6.0,48,0.00,,SCT048,0.00,VWS V14.01,2013-08-13 00:02:00,
2013-08-12 17:05:00,77.2,55.4,29.94,WNW,298,1.0,6.0,47,0.00,,SCT048,0.00,VWS V14.01,2013-08-13 00:05:00,
2013-08-12 17:06:00,77.2,55.4,29.94,WNW,298,1.0,1.0,47,0.00,,SCT048,0.00,VWS V14.01,2013-08-13 00:06:00,
2013-08-12 17:07:00,77.2,55.4,29.94,WNW,299,0.0,3.0,47,0.00,,SCT048,0.00,VWS V14.01,2013-08-13 00:07:00,
2013-08-12 17:09:00,77.4,55.6,29.94,WSW,247,2.0,5.0,47,0.00,,SCT048,0.00,VWS V14.01,2013-08-13 00:09:00,
2013-08-12 17:10:00,77.4,56.2,29.94,WSW,246,2.0,6.0,48,0.00,,SCT048,0.00,VWS V14.01,2013-08-13 00:10:00,
2013-08-12 17:11:00,77.4,55.6,29.94,WSW,239,0.0,5.0,47,0.00,,SCT048,0.00,VWS V14.01,2013-08-13 00:11:00,
2013-08-12 17:12:00,77.4,56.2,29.94,WSW,239,1.0,5.0,48,0.00,,SCT048,0.00,VWS V14.01,2013-08-13 00:12:00,
2013-08-12 17:14:00,77.2,55.4,29.94,WSW,239,2.0,5.0,47,0.00,,SCT048,0.00,VWS V14.01,2013-08-13 00:14:00,
2013-08-12 17:15:00,77.2,56.0,29.93,SW,217,2.0,7.0,48,0.00,,SCT048,0.00,VWS V14.01,2013-08-13 00:15:00,
2013-08-12 17:16:00,77.2,55.4,29.93,SW,217,3.0,7.0,47,0.00,,SCT048,0.00,VWS V14.01,2013-08-13 00:16:00,
2013-08-12 17:19:00,77.2,56.0,29.93,SW,226,1.0,3.0,48,0.00,,SCT048,0.00,VWS V14.01,2013-08-13 00:19:00,
2013-08-12 17:20:00,77.2,56.0,29.93,SW,227,2.0,3.0,48,0.00,,SCT048,0.00,VWS V14.01,2013-08-13 00:20:00,
2013-08-12 17:21:00,77.2,56.0,29.93,SW,227,0.0,3.0,48,0.00,,SCT048,0.00,VWS V14.01,2013-08-13 00:21:00,
2013-08-12 17:24:00,77.4,55.0,29.93,SW,227,4.0,6.0,46,0.00,,SCT048,0.00,VWS V14.01,2013-08-13 00:24:00,
2013-08-12 17:25:00,77.4,55.0,29.93,SW,227,0.0,6.0,46,0.00,,SCT048,0.00,VWS V14.01,2013-08-13 00:25:00,
2013-08-12 17:26:00,77.4,55.6,29.93,SW,227,0.0,0.0,47,0.00,,SCT048,0.00,VWS V14.01,2013-08-13 00:26:00,
2013-08-12 17:29:00,77.4,55.6,29.93,West,267,5.0,6.0,47,0.00,,SCT048,0.00,VWS V14.01,2013-08-13 00:29:00,
2013-08-12 17:31:00,77.2,55.4,29.93,WSW,251,5.0,6.0,47,0.00,,SCT048,0.00,VWS V14.01,2013-08-13 00:31:00,
2013-08-12 17:34:00,77.0,55.2,29.93,NW,312,0.0,5.0,47,0.00,,SCT048,0.00,VWS V14.01,2013-08-13 00:34:00,
2013-08-12 17:35:00,77.0,54.7,29.93,West,265,4.0,6.0,46,0.00,,SCT048,0.00,VWS V14.01,2013-08-13 00:35:00,
2013-08-12 17:36:00,77.0,54.7,29.93,West,265,0.0,0.0,46,0.00,,SCT048,0.00,VWS V14.01,2013-08-13 00:36:00,
2013-08-12 17:37:00,77.0,55.2,29.93,West,265,0.0,0.0,47,0.00,,SCT048,0.00,VWS V14.01,2013-08-13 00:37:00,
2013-08-12 17:40:00,76.8,55.1,29.93,West,267,0.0,3.0,47,0.00,,SCT048,0.00,VWS V14.01,2013-08-13 00:40:00,
2013-08-12 17:41:00,76.8,55.1,29.93,SW,236,2.0,7.0,47,0.00,,SCT048,0.00,VWS V14.01,2013-08-13 00:41:00,
2013-08-12 17:45:00,76.7,55.5,29.93,WNW,289,2.0,10.0,48,0.00,,SCT048,0.00,VWS V14.01,2013-08-13 00:45:00,
2013-08-12 17:46:00,76.7,55.5,29.93,WNW,285,4.0,10.0,48,0.00,,SCT048,0.00,VWS V14.01,2013-08-13 00:46:00,
2013-08-12 17:47:00,76.7,55.0,29.93,NW,316,8.0,8.0,47,0.00,,SCT048,0.00,VWS V14.01,2013-08-13 00:47:00,
2013-08-12 17:50:00,76.5,54.8,29.93,NW,311,0.0,8.0,47,0.00,,SCT048,0.00,VWS V14.01,2013-08-13 00:50:00,
2013-08-12 17:51:00,76.5,54.8,29.93,WNW,282,5.0,8.0,47,0.00,,SCT048,0.00,VWS V14.01,2013-08-13 00:51:00,
2013-08-12 17:52:00,76.5,54.8,29.93,West,267,5.0,5.0,47,0.00,,SCT048,0.00,VWS V14.01,2013-08-13 00:52:00,
2013-08-12 17:56:00,76.3,55.2,29.93,WSW,246,5.0,7.0,48,0.00,,SCT048,0.00,VWS V14.01,2013-08-13 00:56:00,
2013-08-12 18:01:00,76.1,55.0,29.93,NW,312,0.0,6.0,48,0.00,,CLR,0.00,VWS V14.01,2013-08-13 01:01:00,
2013-08-12 18:02:00,76.1,55.0,29.93,NW,315,7.0,7.0,48,0.00,,CLR,0.00,VWS V14.01,2013-08-13 01:02:00,
2013-08-12 18:04:00,76.0,54.9,29.93,NNW,343,2.0,7.0,48,0.00,,CLR,0.00,VWS V14.01,2013-08-13 01:04:00,
2013-08-12 18:07:00,75.8,55.3,29.93,NW,315,7.0,7.0,49,0.00,,CLR,0.00,VWS V14.01,2013-08-13 01:07:00,
2013-08-12 18:08:00,75.8,54.7,29.93,NW,325,8.0,8.0,48,0.00,,CLR,0.00,VWS V14.01,2013-08-13 01:08:00,
2013-08-12 18:09:00,75.8,54.7,29.93,WNW,292,1.0,8.0,48,0.00,,CLR,0.00,VWS V14.01,2013-08-13 01:09:00,
2013-08-12 18:11:00,75.8,54.7,29.93,West,280,2.0,8.0,48,0.00,,CLR,0.00,VWS V14.01,2013-08-13 01:11:00,
2013-08-12 18:12:00,75.6,55.1,29.93,West,264,1.0,5.0,49,0.00,,CLR,0.00,VWS V14.01,2013-08-13 01:12:00,
2013-08-12 18:14:00,75.6,54.5,29.93,WNW,294,2.0,6.0,48,0.00,,CLR,0.00,VWS V14.01,2013-08-13 01:14:00,
2013-08-12 18:16:00,75.6,54.5,29.93,West,264,2.0,5.0,48,0.00,,CLR,0.00,VWS V14.01,2013-08-13 01:16:00,
2013-08-12 18:19:00,75.4,54.4,29.93,West,272,6.0,8.0,48,0.00,,CLR,0.00,VWS V14.01,2013-08-13 01:19:00,
2013-08-12 18:21:00,75.4,54.4,29.93,WSW,258,1.0,8.0,48,0.00,,CLR,0.00,VWS V14.01,2013-08-13 01:21:00,
2013-08-12 18:22:00,75.4,54.9,29.93,SW,233,1.0,7.0,49,0.00,,CLR,0.00,VWS V14.01,2013-08-13 01:22:00,
2013-08-12 18:24:00,75.4,54.9,29.93,WSW,243,0.0,7.0,49,0.00,,CLR,0.00,VWS V14.01,2013-08-13 01:24:00,
2013-08-12 18:26:00,75.3,54.8,29.93,SW,220,6.0,7.0,49,0.00,,CLR,0.00,VWS V14.01,2013-08-13 01:26:00,
2013-08-12 18:28:00,75.3,54.8,29.93,SSW,212,5.0,7.0,49,0.00,,CLR,0.00,VWS V14.01,2013-08-13 01:28:00,
2013-08-12 18:32:00,75.3,54.8,29.93,SW,224,0.0,6.0,49,0.00,,CLR,0.00,VWS V14.01,2013-08-13 01:32:00,
2013-08-12 18:33:00,75.3,54.8,29.93,SW,229,2.0,6.0,49,0.00,,CLR,0.00,VWS V14.01,2013-08-13 01:33:00,
2013-08-12 18:34:00,75.3,54.8,29.93,SW,230,0.0,6.0,49,0.00,,CLR,0.00,VWS V14.01,2013-08-13 01:34:00,
2013-08-12 18:35:00,75.3,54.8,29.93,SW,229,0.0,6.0,49,0.00,,CLR,0.00,VWS V14.01,2013-08-13 01:35:00,
2013-08-12 18:39:00,75.3,54.8,29.93,WSW,241,2.0,5.0,49,0.00,,CLR,0.00,VWS V14.01,2013-08-13 01:39:00,
2013-08-12 18:40:00,75.4,54.9,29.93,WSW,240,2.0,5.0,49,0.00,,CLR,0.00,VWS V14.01,2013-08-13 01:40:00,
2013-08-12 18:41:00,75.4,54.9,29.93,WSW,240,3.0,5.0,49,0.00,,CLR,0.00,VWS V14.01,2013-08-13 01:41:00,
2013-08-12 18:42:00,75.4,54.9,29.93,SW,234,3.0,5.0,49,0.00,,CLR,0.00,VWS V14.01,2013-08-13 01:42:00,
2013-08-12 18:46:00,75.3,54.8,29.93,WSW,240,4.0,4.0,49,0.00,,CLR,0.00,VWS V14.01,2013-08-13 01:46:00,
2013-08-12 18:47:00,75.3,54.8,29.93,WSW,240,1.0,5.0,49,0.00,,CLR,0.00,VWS V14.01,2013-08-13 01:47:00,
2013-08-12 18:48:00,75.3,54.8,29.93,WSW,240,0.0,5.0,49,0.00,,CLR,0.00,VWS V14.01,2013-08-13 01:48:00,
2013-08-12 18:53:00,75.1,55.2,29.93,WSW,243,2.0,5.0,50,0.00,,CLR,0.00,VWS V14.01,2013-08-13 01:53:00,
2013-08-12 18:54:00,75.1,55.2,29.93,West,264,6.0,6.0,50,0.00,,CLR,0.00,VWS V14.01,2013-08-13 01:54:00,
2013-08-12 18:57:00,75.1,55.2,29.93,WSW,254,0.0,1.0,50,0.00,,CLR,0.00,VWS V14.01,2013-08-13 01:57:00,
2013-08-12 18:59:00,74.9,54.5,29.93,West,267,2.0,7.0,49,0.00,,CLR,0.00,VWS V14.01,2013-08-13 01:59:00,
2013-08-12 19:01:00,74.9,55.0,29.94,West,280,2.0,7.0,50,0.00,,CLR,0.00,VWS V14.01,2013-08-13 02:01:00,
2013-08-12 19:05:00,74.7,54.8,29.94,WNW,288,0.0,6.0,50,0.00,,CLR,0.00,VWS V14.01,2013-08-13 02:05:00,
2013-08-12 19:06:00,74.6,54.8,29.94,West,264,2.0,6.0,50,0.00,,CLR,0.00,VWS V14.01,2013-08-13 02:06:00,
2013-08-12 19:07:00,74.6,54.8,29.94,West,263,0.0,3.0,50,0.00,,CLR,0.00,VWS V14.01,2013-08-13 02:07:00,
2013-08-12 19:11:00,74.6,55.3,29.94,SW,230,0.0,5.0,51,0.00,,CLR,0.00,VWS V14.01,2013-08-13 02:11:00,
2013-08-12 19:16:00,74.2,54.9,29.94,SW,217,3.0,4.0,51,0.00,,CLR,0.00,VWS V14.01,2013-08-13 02:16:00,
2013-08-12 19:17:00,74.2,54.9,29.94,SW,236,2.0,6.0,51,0.00,,CLR,0.00,VWS V14.01,2013-08-13 02:17:00,
2013-08-12 19:18:00,74.2,54.9,29.94,WSW,258,4.0,6.0,51,0.00,,CLR,0.00,VWS V14.01,2013-08-13 02:18:00,
2013-08-12 19:21:00,74.0,54.7,29.94,WSW,248,0.0,6.0,51,0.00,,CLR,0.00,VWS V14.01,2013-08-13 02:21:00,
2013-08-12 19:26:00,73.7,55.0,29.94,West,272,0.0,6.0,52,0.00,,CLR,0.00,VWS V14.01,2013-08-13 02:26:00,
2013-08-12 19:28:00,73.5,54.8,29.94,West,272,0.0,2.0,52,0.00,,CLR,0.00,VWS V14.01,2013-08-13 02:28:00,
2013-08-12 19:31:00,73.3,55.2,29.94,SW,229,5.0,6.0,53,0.00,,CLR,0.00,VWS V14.01,2013-08-13 02:31:00,
2013-08-12 19:32:00,73.3,55.2,29.94,SW,229,0.0,3.0,53,0.00,,CLR,0.00,VWS V14.01,2013-08-13 02:32:00,
2013-08-12 19:33:00,73.2,55.1,29.94,SW,229,0.0,3.0,53,0.00,,CLR,0.00,VWS V14.01,2013-08-13 02:33:00,
2013-08-12 19:36:00,73.0,54.9,29.94,SW,229,0.0,3.0,53,0.00,,CLR,0.00,VWS V14.01,2013-08-13 02:36:00,
2013-08-12 19:38:00,73.0,54.9,29.94,SW,229,0.0,0.0,53,0.00,,CLR,0.00,VWS V14.01,2013-08-13 02:38:00,
2013-08-12 19:39:00,73.0,54.9,29.94,SW,229,0.0,0.0,53,0.00,,CLR,0.00,VWS V14.01,2013-08-13 02:39:00,
2013-08-12 19:40:00,73.0,54.9,29.94,SW,229,0.0,2.0,53,0.00,,CLR,0.00,VWS V14.01,2013-08-13 02:40:00,
2013-08-12 19:41:00,73.0,54.9,29.94,SW,229,0.0,2.0,53,0.00,,CLR,0.00,VWS V14.01,2013-08-13 02:41:00,
2013-08-12 19:46:00,72.8,55.2,29.94,SW,229,0.0,1.0,54,0.00,,CLR,0.00,VWS V14.01,2013-08-13 02:46:00,
2013-08-12 19:47:00,72.8,55.2,29.94,SW,229,0.0,0.0,54,0.00,,CLR,0.00,VWS V14.01,2013-08-13 02:47:00,
2013-08-12 19:50:00,72.7,55.1,29.94,SW,229,1.0,2.0,54,0.00,,CLR,0.00,VWS V14.01,2013-08-13 02:50:00,
2013-08-12 19:51:00,72.7,55.1,29.94,SW,229,0.0,2.0,54,0.00,,CLR,0.00,VWS V14.01,2013-08-13 02:51:00,
2013-08-12 19:54:00,72.7,55.1,29.94,SW,229,0.0,0.0,54,0.00,,CLR,0.00,VWS V14.01,2013-08-13 02:54:00,
2013-08-12 19:57:00,72.5,54.9,29.94,SW,229,0.0,1.0,54,0.00,,CLR,0.00,VWS V14.01,2013-08-13 02:57:00,
2013-08-12 19:59:00,72.5,54.9,29.94,SW,229,0.0,1.0,54,0.00,,CLR,0.00,VWS V14.01,2013-08-13 02:59:00,
2013-08-12 20:00:00,72.5,54.9,29.94,SW,229,0.0,1.0,54,0.00,,CLR,0.00,VWS V14.01,2013-08-13 03:00:00,
2013-08-12 20:03:00,72.3,54.7,29.94,SW,227,2.0,3.0,54,0.00,,CLR,0.00,VWS V14.01,2013-08-13 03:03:00,
2013-08-12 20:04:00,72.3,54.7,29.94,SW,227,0.0,5.0,54,0.00,,CLR,0.00,VWS V14.01,2013-08-13 03:04:00,
2013-08-12 20:06:00,72.1,54.6,29.94,SW,227,1.0,5.0,54,0.00,,CLR,0.00,VWS V14.01,2013-08-13 03:06:00,
2013-08-12 20:08:00,72.1,54.6,29.94,SW,227,0.0,3.0,54,0.00,,CLR,0.00,VWS V14.01,2013-08-13 03:08:00,
2013-08-12 20:11:00,72.0,54.5,29.94,WSW,244,0.0,4.0,54,0.00,,CLR,0.00,VWS V14.01,2013-08-13 03:11:00,
2013-08-12 20:12:00,72.0,54.5,29.94,WNW,298,0.0,5.0,54,0.00,,CLR,0.00,VWS V14.01,2013-08-13 03:12:00,
2013-08-12 20:16:00,71.8,54.3,29.94,WNW,299,0.0,5.0,54,0.00,,CLR,0.00,VWS V14.01,2013-08-13 03:16:00,
2013-08-12 20:17:00,71.8,54.3,29.94,WNW,299,0.0,0.0,54,0.00,,CLR,0.00,VWS V14.01,2013-08-13 03:17:00,
2013-08-12 20:18:00,71.8,54.8,29.94,WNW,299,0.0,0.0,55,0.00,,CLR,0.00,VWS V14.01,2013-08-13 03:18:00,
2013-08-12 20:19:00,71.8,55.3,29.94,WNW,299,0.0,0.0,56,0.00,,CLR,0.00,VWS V14.01,2013-08-13 03:19:00,
2013-08-12 20:24:00,71.6,56.5,29.94,WNW,299,0.0,0.0,59,0.00,,CLR,0.00,VWS V14.01,2013-08-13 03:24:00,
2013-08-12 20:25:00,71.6,56.5,29.94,WNW,299,1.0,1.0,59,0.00,,CLR,0.00,VWS V14.01,2013-08-13 03:25:00,
2013-08-12 20:26:00,71.5,55.5,29.94,WNW,299,0.0,1.0,57,0.00,,CLR,0.00,VWS V14.01,2013-08-13 03:26:00,
2013-08-12 20:28:00,71.5,55.5,29.94,WNW,299,0.0,0.0,57,0.00,,CLR,0.00,VWS V14.01,2013-08-13 03:28:00,
2013-08-12 20:29:00,71.5,55.5,29.94,WNW,299,0.0,0.0,57,0.00,,CLR,0.00,VWS V14.01,2013-08-13 03:29:00,
2013-08-12 20:32:00,71.3,56.2,29.94,WNW,299,0.0,0.0,59,0.00,,CLR,0.00,VWS V14.01,2013-08-13 03:32:00,
2013-08-12 20:33:00,71.3,55.8,29.94,WNW,299,0.0,0.0,58,0.00,,CLR,0.00,VWS V14.01,2013-08-13 03:33:00,
2013-08-12 20:34:00,71.3,55.3,29.94,WNW,299,0.0,0.0,57,0.00,,CLR,0.00,VWS V14.01,2013-08-13 03:34:00,
2013-08-12 20:36:00,71.1,56.1,29.94,WNW,299,0.0,0.0,59,0.00,,CLR,0.00,VWS V14.01,2013-08-13 03:36:00,
2013-08-12 20:37:00,71.1,54.6,29.94,WNW,284,2.0,5.0,56,0.00,,CLR,0.00,VWS V14.01,2013-08-13 03:37:00,
2013-08-12 20:38:00,71.1,54.6,29.94,WNW,284,0.0,5.0,56,0.00,,CLR,0.00,VWS V14.01,2013-08-13 03:38:00,
2013-08-12 20:40:00,70.9,54.4,29.94,WNW,284,0.0,5.0,56,0.00,,CLR,0.00,VWS V14.01,2013-08-13 03:40:00,
2013-08-12 20:42:00,70.9,54.9,29.94,WNW,284,0.0,0.0,57,0.00,,CLR,0.00,VWS V14.01,2013-08-13 03:42:00,
2013-08-12 20:43:00,70.9,55.4,29.94,WNW,284,0.0,0.0,58,0.00,,CLR,0.00,VWS V14.01,2013-08-13 03:43:00,
2013-08-12 20:45:00,70.8,54.8,29.95,WNW,284,2.0,3.0,57,0.00,,CLR,0.00,VWS V14.01,2013-08-13 03:45:00,
2013-08-12 20:46:00,70.8,54.3,29.95,WNW,284,2.0,2.0,56,0.00,,CLR,0.00,VWS V14.01,2013-08-13 03:46:00,
2013-08-12 20:52:00,70.6,55.1,29.95,WNW,284,0.0,0.0,58,0.00,,CLR,0.00,VWS V14.01,2013-08-13 03:52:00,
2013-08-12 20:53:00,70.4,54.5,29.95,WNW,284,0.0,0.0,57,0.00,,CLR,0.00,VWS V14.01,2013-08-13 03:53:00,
2013-08-12 20:54:00,70.4,54.5,29.95,WNW,284,0.0,0.0,57,0.00,,CLR,0.00,VWS V14.01,2013-08-13 03:54:00,
2013-08-12 20:57:00,70.4,54.9,29.95,WNW,284,0.0,0.0,58,0.00,,CLR,0.00,VWS V14.01,2013-08-13 03:57:00,
2013-08-12 21:00:00,70.4,54.9,29.95,WNW,284,0.0,0.0,58,0.00,,CLR,0.00,VWS V14.01,2013-08-13 04:00:00,
2013-08-12 21:01:00,70.4,54.9,29.96,WNW,284,0.0,0.0,58,0.00,,OVC055,0.00,VWS V14.01,2013-08-13 04:01:00,
2013-08-12 21:02:00,70.4,55.4,29.96,WNW,284,0.0,0.0,59,0.00,,OVC055,0.00,VWS V14.01,2013-08-13 04:02:00,
2013-08-12 21:03:00,70.3,55.3,29.96,WNW,284,0.0,0.0,59,0.00,,OVC055,0.00,VWS V14.01,2013-08-13 04:03:00,
2013-08-12 21:04:00,70.3,55.3,29.96,WNW,284,0.0,0.0,59,0.00,,OVC055,0.00,VWS V14.01,2013-08-13 04:04:00,
2013-08-12 21:07:00,70.3,55.8,29.96,WNW,284,0.0,0.0,60,0.00,,OVC055,0.00,VWS V14.01,2013-08-13 04:07:00,
2013-08-12 21:09:00,70.3,55.3,29.96,WNW,284,0.0,0.0,59,0.00,,OVC055,0.00,VWS V14.01,2013-08-13 04:09:00,
2013-08-12 21:10:00,70.1,55.1,29.96,WNW,284,0.0,0.0,59,0.00,,OVC055,0.00,VWS V14.01,2013-08-13 04:10:00,
2013-08-12 21:11:00,70.1,55.1,29.96,WNW,284,2.0,2.0,59,0.00,,OVC055,0.00,VWS V14.01,2013-08-13 04:11:00,
2013-08-12 21:14:00,69.9,54.9,29.96,WNW,284,1.0,3.0,59,0.00,,OVC055,0.00,VWS V14.01,2013-08-13 04:14:00,
2013-08-12 21:15:00,69.9,54.5,29.96,WNW,284,0.0,3.0,58,0.00,,OVC055,0.00,VWS V14.01,2013-08-13 04:15:00,
2013-08-12 21:16:00,69.9,54.5,29.96,WNW,284,0.0,3.0,58,0.00,,OVC055,0.00,VWS V14.01,2013-08-13 04:16:00,
2013-08-12 21:17:00,69.9,54.9,29.96,WNW,284,1.0,2.0,59,0.00,,OVC055,0.00,VWS V14.01,2013-08-13 04:17:00,
2013-08-12 21:20:00,69.8,54.8,29.96,WNW,284,0.0,2.0,59,0.00,,OVC055,0.00,VWS V14.01,2013-08-13 04:20:00,
2013-08-12 21:21:00,69.8,54.8,29.96,WNW,284,0.0,2.0,59,0.00,,OVC055,0.00,VWS V14.01,2013-08-13 04:21:00,
2013-08-12 21:23:00,69.8,55.3,29.96,WNW,284,0.0,2.0,60,0.00,,OVC055,0.00,VWS V14.01,2013-08-13 04:23:00,
2013-08-12 21:26:00,69.6,55.6,29.96,WNW,284,0.0,2.0,61,0.00,,OVC055,0.00,VWS V14.01,2013-08-13 04:26:00,
2013-08-12 21:28:00,69.6,55.1,29.96,WNW,287,0.0,3.0,60,0.00,,OVC055,0.00,VWS V14.01,2013-08-13 04:28:00,
2013-08-12 21:32:00,69.4,54.9,29.97,WNW,287,1.0,3.0,60,0.00,,OVC055,0.00,VWS V14.01,2013-08-13 04:32:00,
2013-08-12 21:33:00,69.4,54.9,29.97,WNW,287,1.0,3.0,60,0.00,,OVC055,0.00,VWS V14.01,2013-08-13 04:33:00,
2013-08-12 21:34:00,69.3,54.8,29.97,WNW,287,0.0,3.0,60,0.00,,OVC055,0.00,VWS V14.01,2013-08-13 04:34:00,
2013-08-12 21:37:00,69.1,55.1,29.97,WNW,285,2.0,2.0,61,0.00,,OVC055,0.00,VWS V14.01,2013-08-13 04:37:00,
2013-08-12 21:39:00,69.1,55.1,29.97,West,263,2.0,6.0,61,0.00,,OVC055,0.00,VWS V14.01,2013-08-13 04:39:00,
2013-08-12 21:40:00,68.9,54.9,29.97,West,263,0.0,6.0,61,0.00,,OVC055,0.00,VWS V14.01,2013-08-13 04:40:00,
2013-08-12 21:41:00,68.9,54.9,29.97,West,280,3.0,6.0,61,0.00,,OVC055,0.00,VWS V14.01,2013-08-13 04:41:00,
2013-08-12 21:43:00,68.9,54.9,29.97,West,280,0.0,3.0,61,0.00,,OVC055,0.00,VWS V14.01,2013-08-13 04:43:00,
2013-08-12 21:44:00,68.8,54.8,29.97,West,280,0.0,3.0,61,0.00,,OVC055,0.00,VWS V14.01,2013-08-13 04:44:00,
2013-08-12 21:47:00,68.8,55.3,29.97,West,280,0.0,0.0,62,0.00,,OVC055,0.00,VWS V14.01,2013-08-13 04:47:00,
2013-08-12 21:48:00,68.8,55.3,29.97,West,280,3.0,3.0,62,0.00,,OVC055,0.00,VWS V14.01,2013-08-13 04:48:00,
2013-08-12 21:50:00,68.6,55.1,29.97,West,280,2.0,3.0,62,0.00,,OVC055,0.00,VWS V14.01,2013-08-13 04:50:00,
2013-08-12 21:51:00,68.6,55.1,29.97,West,280,2.0,3.0,62,0.00,,OVC055,0.00,VWS V14.01,2013-08-13 04:51:00,
2013-08-12 21:56:00,68.4,55.3,29.97,West,280,0.0,2.0,63,0.00,,OVC055,0.00,VWS V14.01,2013-08-13 04:56:00,
2013-08-12 21:57:00,68.4,55.3,29.97,West,280,0.0,0.0,63,0.00,,OVC055,0.00,VWS V14.01,2013-08-13 04:57:00,
2013-08-12 21:58:00,68.3,55.7,29.97,West,280,2.0,3.0,64,0.00,,OVC055,0.00,VWS V14.01,2013-08-13 04:58:00,
2013-08-12 22:03:00,68.1,55.9,29.97,West,280,0.0,0.0,65,0.00,,OVC055,0.00,VWS V14.01,2013-08-13 05:03:00,
2013-08-12 22:04:00,67.9,55.7,29.97,West,280,0.0,0.0,65,0.00,,OVC055,0.00,VWS V14.01,2013-08-13 05:04:00,
2013-08-12 22:05:00,67.9,55.7,29.97,West,280,0.0,0.0,65,0.00,,OVC055,0.00,VWS V14.01,2013-08-13 05:05:00,
2013-08-12 22:06:00,67.9,55.7,29.97,West,280,0.0,0.0,65,0.00,,OVC055,0.00,VWS V14.01,2013-08-13 05:06:00,
2013-08-12 22:07:00,67.9,55.7,29.97,West,280,0.0,0.0,65,0.00,,OVC055,0.00,VWS V14.01,2013-08-13 05:07:00,
2013-08-12 22:10:00,67.8,55.6,29.97,West,280,0.0,1.0,65,0.00,,OVC055,0.00,VWS V14.01,2013-08-13 05:10:00,
2013-08-12 22:11:00,67.8,55.6,29.97,West,280,0.0,1.0,65,0.00,,OVC055,0.00,VWS V14.01,2013-08-13 05:11:00,
2013-08-12 22:12:00,67.6,55.4,29.97,West,280,0.0,0.0,65,0.00,,OVC055,0.00,VWS V14.01,2013-08-13 05:12:00,
2013-08-12 22:15:00,67.6,55.4,29.97,West,280,0.0,2.0,65,0.00,,OVC055,0.00,VWS V14.01,2013-08-13 05:15:00,
2013-08-12 22:16:00,67.4,55.7,29.97,West,280,0.0,2.0,66,0.00,,OVC055,0.00,VWS V14.01,2013-08-13 05:16:00,
2013-08-12 22:17:00,67.4,55.7,29.97,West,280,0.0,1.0,66,0.00,,OVC055,0.00,VWS V14.01,2013-08-13 05:17:00,
2013-08-12 22:18:00,67.4,55.7,29.97,West,280,0.0,1.0,66,0.00,,OVC055,0.00,VWS V14.01,2013-08-13 05:18:00,
2013-08-12 22:19:00,67.3,55.6,29.97,West,280,0.0,1.0,66,0.00,,OVC055,0.00,VWS V14.01,2013-08-13 05:19:00,
2013-08-12 22:21:00,67.3,55.6,29.97,West,280,1.0,2.0,66,0.00,,OVC055,0.00,VWS V14.01,2013-08-13 05:21:00,
2013-08-12 22:23:00,67.1,55.8,29.97,West,280,0.0,1.0,67,0.00,,OVC055,0.00,VWS V14.01,2013-08-13 05:23:00,
2013-08-12 22:24:00,67.1,55.8,29.97,West,280,0.0,1.0,67,0.00,,OVC055,0.00,VWS V14.01,2013-08-13 05:24:00,
2013-08-12 22:25:00,67.1,55.8,29.97,West,280,0.0,1.0,67,0.00,,OVC055,0.00,VWS V14.01,2013-08-13 05:25:00,
2013-08-12 22:29:00,66.8,55.5,29.97,West,280,0.0,2.0,67,0.00,,OVC055,0.00,VWS V14.01,2013-08-13 05:29:00,
2013-08-12 22:30:00,66.8,55.5,29.97,West,280,0.0,2.0,67,0.00,,OVC055,0.00,VWS V14.01,2013-08-13 05:30:00,
2013-08-12 22:31:00,66.6,55.3,29.97,West,280,0.0,2.0,67,0.00,,OVC055,0.00,VWS V14.01,2013-08-13 05:31:00,
2013-08-12 22:32:00,66.6,55.3,29.97,West,280,0.0,0.0,67,0.00,,OVC055,0.00,VWS V14.01,2013-08-13 05:32:00,
2013-08-12 22:35:00,66.4,55.5,29.97,West,280,0.0,0.0,68,0.00,,OVC055,0.00,VWS V14.01,2013-08-13 05:35:00,
2013-08-12 22:36:00,66.3,55.4,29.97,West,280,1.0,3.0,68,0.00,,OVC055,0.00,VWS V14.01,2013-08-13 05:36:00,
2013-08-12 22:38:00,66.3,55.4,29.97,West,280,0.0,1.0,68,0.00,,OVC055,0.00,VWS V14.01,2013-08-13 05:38:00,
2013-08-12 22:41:00,66.1,55.7,29.97,West,280,0.0,2.0,69,0.00,,OVC055,0.00,VWS V14.01,2013-08-13 05:41:00,
2013-08-12 22:44:00,66.0,55.5,29.97,West,280,0.0,1.0,69,0.00,,OVC055,0.00,VWS V14.01,2013-08-13 05:44:00,
2013-08-12 22:45:00,66.0,55.5,29.98,West,280,0.0,1.0,69,0.00,,OVC055,0.00,VWS V14.01,2013-08-13 05:45:00,
2013-08-12 22:46:00,65.8,55.8,29.98,West,280,0.0,1.0,70,0.00,,OVC055,0.00,VWS V14.01,2013-08-13 05:46:00,
2013-08-12 22:49:00,65.8,55.8,29.98,West,280,0.0,0.0,70,0.00,,OVC055,0.00,VWS V14.01,2013-08-13 05:49:00,
2013-08-12 22:50:00,65.6,55.6,29.98,West,280,0.0,0.0,70,0.00,,OVC055,0.00,VWS V14.01,2013-08-13 05:50:00,
2013-08-12 22:51:00,65.6,55.6,29.98,West,280,0.0,0.0,70,0.00,,OVC055,0.00,VWS V14.01,2013-08-13 05:51:00,
2013-08-12 22:55:00,65.5,55.9,29.98,West,280,0.0,1.0,71,0.00,,OVC055,0.00,VWS V14.01,2013-08-13 05:55:00,
2013-08-12 22:56:00,65.5,55.9,29.98,West,280,0.0,1.0,71,0.00,,OVC055,0.00,VWS V14.01,2013-08-13 05:56:00,
2013-08-12 22:59:00,65.3,55.7,29.98,West,280,0.0,0.0,71,0.00,,OVC055,0.00,VWS V14.01,2013-08-13 05:59:00,
2013-08-12 23:01:00,65.3,55.7,29.98,West,280,0.0,0.0,71,0.00,,OVC060,0.00,VWS V14.01,2013-08-13 06:01:00,
2013-08-12 23:02:00,65.3,55.7,29.98,West,280,0.0,0.0,71,0.00,,OVC060,0.00,VWS V14.01,2013-08-13 06:02:00,
2013-08-12 23:03:00,65.3,56.0,29.98,West,280,0.0,0.0,72,0.00,,OVC060,0.00,VWS V14.01,2013-08-13 06:03:00,
2013-08-12 23:06:00,65.2,56.0,29.98,West,280,0.0,0.0,72,0.00,,OVC060,0.00,VWS V14.01,2013-08-13 06:06:00,
2013-08-12 23:08:00,65.2,56.0,29.98,West,280,0.0,0.0,72,0.00,,OVC060,0.00,VWS V14.01,2013-08-13 06:08:00,
2013-08-12 23:11:00,65.0,56.2,29.98,West,280,0.0,0.0,73,0.00,,OVC060,0.00,VWS V14.01,2013-08-13 06:11:00,
2013-08-12 23:12:00,65.0,56.2,29.98,West,280,0.0,0.0,73,0.00,,OVC060,0.00,VWS V14.01,2013-08-13 06:12:00,
2013-08-12 23:13:00,65.0,56.2,29.98,West,280,0.0,0.0,73,0.00,,OVC060,0.00,VWS V14.01,2013-08-13 06:13:00,
2013-08-12 23:16:00,64.8,56.0,29.98,West,280,0.0,0.0,73,0.00,,OVC060,0.00,VWS V14.01,2013-08-13 06:16:00,
2013-08-12 23:18:00,64.8,56.0,29.98,West,280,0.0,0.0,73,0.00,,OVC060,0.00,VWS V14.01,2013-08-13 06:18:00,
2013-08-12 23:19:00,64.8,56.0,29.98,West,280,2.0,2.0,73,0.00,,OVC060,0.00,VWS V14.01,2013-08-13 06:19:00,
2013-08-12 23:21:00,64.7,55.9,29.98,West,280,0.0,2.0,73,0.00,,OVC060,0.00,VWS V14.01,2013-08-13 06:21:00,
2013-08-12 23:22:00,64.7,55.9,29.98,West,280,0.0,0.0,73,0.00,,OVC060,0.00,VWS V14.01,2013-08-13 06:22:00,
2013-08-12 23:24:00,64.7,55.9,29.98,West,280,0.0,0.0,73,0.00,,OVC060,0.00,VWS V14.01,2013-08-13 06:24:00,
2013-08-12 23:25:00,64.7,55.9,29.98,West,280,0.0,0.0,73,0.00,,OVC060,0.00,VWS V14.01,2013-08-13 06:25:00,
2013-08-12 23:29:00,64.5,56.0,29.98,West,280,0.0,0.0,74,0.00,,OVC060,0.00,VWS V14.01,2013-08-13 06:29:00,
2013-08-12 23:31:00,64.5,56.0,29.99,West,280,0.0,0.0,74,0.00,,OVC060,0.00,VWS V14.01,2013-08-13 06:31:00,
2013-08-12 23:34:00,64.3,55.5,29.99,West,280,0.0,2.0,73,0.00,,OVC060,0.00,VWS V14.01,2013-08-13 06:34:00,
2013-08-12 23:35:00,64.3,55.5,29.99,West,280,0.0,2.0,73,0.00,,OVC060,0.00,VWS V14.01,2013-08-13 06:35:00,
2013-08-12 23:36:00,64.3,55.5,29.99,West,280,0.0,0.0,73,0.00,,OVC060,0.00,VWS V14.01,2013-08-13 06:36:00,
2013-08-12 23:37:00,64.3,55.5,29.99,West,280,0.0,0.0,73,0.00,,OVC060,0.00,VWS V14.01,2013-08-13 06:37:00,
2013-08-12 23:38:00,64.3,55.5,29.99,West,280,2.0,2.0,73,0.00,,OVC060,0.00,VWS V14.01,2013-08-13 06:38:00,
2013-08-12 23:40:00,64.3,55.5,29.99,West,280,0.0,2.0,73,0.00,,OVC060,0.00,VWS V14.01,2013-08-13 06:40:00,
2013-08-12 23:41:00,64.2,55.4,29.99,West,280,0.0,2.0,73,0.00,,OVC060,0.00,VWS V14.01,2013-08-13 06:41:00,
2013-08-12 23:43:00,64.2,55.4,29.99,West,280,0.0,0.0,73,0.00,,OVC060,0.00,VWS V14.01,2013-08-13 06:43:00,
2013-08-12 23:44:00,64.2,55.4,29.99,West,280,0.0,0.0,73,0.00,,OVC060,0.00,VWS V14.01,2013-08-13 06:44:00,
2013-08-12 23:48:00,64.2,55.8,29.99,West,280,0.0,0.0,74,0.00,,OVC060,0.00,VWS V14.01,2013-08-13 06:48:00,
2013-08-12 23:49:00,64.2,55.8,29.99,West,280,0.0,0.0,74,0.00,,OVC060,0.00,VWS V14.01,2013-08-13 06:49:00,
2013-08-12 23:50:00,64.2,55.8,29.99,West,280,0.0,0.0,74,0.00,,OVC060,0.00,VWS V14.01,2013-08-13 06:50:00,
2013-08-12 23:51:00,64.2,55.8,29.99,West,280,0.0,0.0,74,0.00,,OVC060,0.00,VWS V14.01,2013-08-13 06:51:00,
2013-08-12 23:53:00,64.0,55.9,29.99,West,280,0.0,0.0,75,0.00,,OVC060,0.00,VWS V14.01,2013-08-13 06:53:00,
2013-08-12 23:55:00,63.9,55.8,29.99,West,280,2.0,2.0,75,0.00,,OVC060,0.00,VWS V14.01,2013-08-13 06:55:00,
2013-08-12 23:56:00,63.9,55.8,29.99,West,280,2.0,2.0,75,0.00,,OVC060,0.00,VWS V14.01,2013-08-13 06:56:00,
2013-08-12 23:58:00,63.7,56.0,29.99,West,280,1.0,2.0,76,0.00,,OVC060,0.00,VWS V14.01,2013-08-13 06:58:00,